Wetterdaten: Montag, 24.04.2017
Datum Zeit Temp. A. Feuchte A. Luftdruck Regen Wind Richtung Richtung Sonnenschein ET UV Solar Taupunkt Windchill Windben Empfang
24.04.2017 00:00 5,2 C 71 % 1023,2 hPa 0,0 l/m 4,8 km/h (1 Bft) W-SW 245 0 min 0,000 mm 0,0 UV-I 0 W/m 0,4 C 5,2 C 6,4 km/h (2 Bft) 98,00 %
24.04.2017 00:02 5,2 C 71 % 1023,2 hPa 0,0 l/m 4,1 km/h (1 Bft) W-SW 245 0 min 0,000 mm 0,0 UV-I 0 W/m 0,4 C 5,2 C 6,4 km/h (2 Bft) 97,30 %
24.04.2017 00:04 5,2 C 71 % 1023,3 hPa 0,0 l/m 4,4 km/h (1 Bft) W-SW 244 0 min 0,000 mm 0,0 UV-I 0 W/m 0,4 C 5,2 C 6,4 km/h (2 Bft) 97,87 %
24.04.2017 00:06 5,2 C 71 % 1023,3 hPa 0,0 l/m 3,5 km/h (1 Bft) W-SW 244 0 min 0,000 mm 0,0 UV-I 0 W/m 0,4 C 5,2 C 6,4 km/h (2 Bft) 98,11 %
24.04.2017 00:09 5,2 C 72 % 1023,3 hPa 0,0 l/m 4,2 km/h (1 Bft) W-SW 244 0 min 0,000 mm 0,0 UV-I 0 W/m 0,6 C 5,2 C 6,4 km/h (2 Bft) 98,46 %
24.04.2017 00:10 5,2 C 72 % 1023,3 hPa 0,0 l/m 4,2 km/h (1 Bft) W-SW 244 0 min 0,000 mm 0,0 UV-I 0 W/m 0,6 C 5,2 C 6,4 km/h (2 Bft) 96,30 %
24.04.2017 00:12 5,2 C 71 % 1023,3 hPa 0,0 l/m 4,4 km/h (1 Bft) W-SW 244 0 min 0,000 mm 0,0 UV-I 0 W/m 0,4 C 5,2 C 6,4 km/h (2 Bft) 100,00 %
24.04.2017 00:14 5,2 C 71 % 1023,2 hPa 0,0 l/m 5,1 km/h (1 Bft) W-SW 244 0 min 0,000 mm 0,0 UV-I 0 W/m 0,4 C 5,2 C 6,4 km/h (2 Bft) 98,00 %
24.04.2017 00:16 5,2 C 71 % 1023,2 hPa 0,0 l/m 4,6 km/h (1 Bft) W-SW 244 0 min 0,000 mm 0,0 UV-I 0 W/m 0,4 C 5,2 C 6,4 km/h (2 Bft) 100,00 %
24.04.2017 00:18 5,2 C 72 % 1023,2 hPa 0,0 l/m 4,2 km/h (1 Bft) W-SW 244 0 min 0,000 mm 0,0 UV-I 0 W/m 0,6 C 5,2 C 8,0 km/h (2 Bft) 94,74 %
24.04.2017 00:20 5,2 C 72 % 1023,2 hPa 0,0 l/m 4,3 km/h (1 Bft) W-SW 244 0 min 0,000 mm 0,0 UV-I 0 W/m 0,6 C 5,2 C 6,4 km/h (2 Bft) 100,00 %
24.04.2017 00:22 5,1 C 72 % 1023,2 hPa 0,0 l/m 5,9 km/h (2 Bft) W-SW 242 0 min 0,000 mm 0,0 UV-I 0 W/m 0,5 C 5,1 C 8,0 km/h (2 Bft) 96,00 %
24.04.2017 00:24 5,1 C 72 % 1023,3 hPa 0,0 l/m 5,6 km/h (1 Bft) W-SW 241 0 min 0,000 mm 0,0 UV-I 0 W/m 0,5 C 5,1 C 8,0 km/h (2 Bft) 96,23 %
24.04.2017 00:26 5,1 C 73 % 1023,3 hPa 0,0 l/m 4,4 km/h (1 Bft) W-SW 241 0 min 0,000 mm 0,0 UV-I 0 W/m 0,7 C 5,1 C 8,0 km/h (2 Bft) 94,74 %
24.04.2017 00:28 5,1 C 73 % 1023,3 hPa 0,0 l/m 4,8 km/h (1 Bft) SW 225 0 min 0,000 mm 0,0 UV-I 0 W/m 0,7 C 5,1 C 6,4 km/h (2 Bft) 94,00 %
24.04.2017 00:30 5,1 C 73 % 1023,2 hPa 0,0 l/m 4,3 km/h (1 Bft) SW 225 0 min 0,000 mm 0,0 UV-I 0 W/m 0,7 C 5,1 C 6,4 km/h (2 Bft) 95,74 %
24.04.2017 00:32 5,1 C 72 % 1023,3 hPa 0,0 l/m 4,7 km/h (1 Bft) SW 231 0 min 0,000 mm 0,0 UV-I 0 W/m 0,5 C 5,1 C 6,4 km/h (2 Bft) 92,68 %
24.04.2017 00:34 5,1 C 72 % 1023,2 hPa 0,0 l/m 3,6 km/h (1 Bft) W-SW 243 0 min 0,000 mm 0,0 UV-I 0 W/m 0,5 C 5,1 C 4,8 km/h (1 Bft) 94,00 %
24.04.2017 00:36 5,1 C 72 % 1023,3 hPa 0,0 l/m 4,7 km/h (1 Bft) W-SW 243 0 min 0,000 mm 0,0 UV-I 0 W/m 0,5 C 5,1 C 6,4 km/h (2 Bft) 96,00 %
24.04.2017 00:38 5,1 C 72 % 1023,3 hPa 0,0 l/m 4,6 km/h (1 Bft) W-SW 243 0 min 0,000 mm 0,0 UV-I 0 W/m 0,5 C 5,1 C 8,0 km/h (2 Bft) 92,45 %
24.04.2017 00:40 5,1 C 73 % 1023,3 hPa 0,0 l/m 4,3 km/h (1 Bft) W-SW 243 0 min 0,000 mm 0,0 UV-I 0 W/m 0,7 C 5,1 C 6,4 km/h (2 Bft) 94,74 %
24.04.2017 00:42 5,0 C 73 % 1023,3 hPa 0,0 l/m 4,6 km/h (1 Bft) W-SW 243 0 min 0,000 mm 0,0 UV-I 0 W/m 0,6 C 5,0 C 6,4 km/h (2 Bft) 92,86 %
24.04.2017 00:44 5,0 C 73 % 1023,3 hPa 0,0 l/m 4,5 km/h (1 Bft) W-SW 243 0 min 0,000 mm 0,0 UV-I 0 W/m 0,6 C 5,0 C 6,4 km/h (2 Bft) 94,23 %
24.04.2017 00:46 5,0 C 73 % 1023,3 hPa 0,0 l/m 4,6 km/h (1 Bft) W-SW 242 0 min 0,000 mm 0,0 UV-I 0 W/m 0,6 C 5,0 C 8,0 km/h (2 Bft) 93,75 %
24.04.2017 00:48 5,0 C 73 % 1023,3 hPa 0,0 l/m 4,5 km/h (1 Bft) W-SW 242 0 min 0,000 mm 0,0 UV-I 0 W/m 0,6 C 5,0 C 6,4 km/h (2 Bft) 94,29 %
24.04.2017 00:50 5,0 C 73 % 1023,3 hPa 0,0 l/m 4,5 km/h (1 Bft) W-SW 242 0 min 0,000 mm 0,0 UV-I 0 W/m 0,6 C 5,0 C 6,4 km/h (2 Bft) 93,75 %
24.04.2017 00:52 5,0 C 73 % 1023,2 hPa 0,0 l/m 4,6 km/h (1 Bft) W-SW 242 0 min 0,000 mm 0,0 UV-I 0 W/m 0,6 C 5,0 C 6,4 km/h (2 Bft) 94,44 %
24.04.2017 00:54 5,0 C 73 % 1023,2 hPa 0,0 l/m 4,1 km/h (1 Bft) W-SW 242 0 min 0,000 mm 0,0 UV-I 0 W/m 0,6 C 5,0 C 6,4 km/h (2 Bft) 96,23 %
24.04.2017 00:56 5,0 C 73 % 1023,2 hPa 0,0 l/m 4,7 km/h (1 Bft) W-SW 250 0 min 0,000 mm 0,0 UV-I 0 W/m 0,6 C 5,0 C 8,0 km/h (2 Bft) 94,00 %
24.04.2017 00:58 5,0 C 74 % 1023,2 hPa 0,0 l/m 5,7 km/h (1 Bft) SW 227 0 min 0,000 mm 0,0 UV-I 0 W/m 0,8 C 5,0 C 8,0 km/h (2 Bft) 97,73 %
24.04.2017 01:00 4,9 C 74 % 1023,2 hPa 0,0 l/m 5,4 km/h (1 Bft) SW 228 0 min 0,025 mm 0,0 UV-I 0 W/m 0,7 C 4,9 C 6,4 km/h (2 Bft) 94,34 %
24.04.2017 01:02 4,9 C 74 % 1023,1 hPa 0,0 l/m 4,7 km/h (1 Bft) SW 228 0 min 0,000 mm 0,0 UV-I 0 W/m 0,7 C 4,9 C 8,0 km/h (2 Bft) 100,00 %
24.04.2017 01:04 4,9 C 74 % 1023,1 hPa 0,0 l/m 4,2 km/h (1 Bft) SW 227 0 min 0,000 mm 0,0 UV-I 0 W/m 0,7 C 4,9 C 6,4 km/h (2 Bft) 91,49 %
24.04.2017 01:06 4,9 C 74 % 1023,1 hPa 0,0 l/m 3,9 km/h (1 Bft) SW 227 0 min 0,000 mm 0,0 UV-I 0 W/m 0,7 C 4,9 C 6,4 km/h (2 Bft) 96,23 %
24.04.2017 01:08 4,9 C 75 % 1023,1 hPa 0,0 l/m 4,5 km/h (1 Bft) SW 227 0 min 0,000 mm 0,0 UV-I 0 W/m 0,8 C 4,9 C 6,4 km/h (2 Bft) 94,74 %
24.04.2017 01:10 4,9 C 75 % 1023,1 hPa 0,0 l/m 4,1 km/h (1 Bft) SW 227 0 min 0,000 mm 0,0 UV-I 0 W/m 0,8 C 4,9 C 6,4 km/h (2 Bft) 97,73 %
24.04.2017 01:12 4,8 C 75 % 1023,1 hPa 0,0 l/m 4,2 km/h (1 Bft) SW 227 0 min 0,000 mm 0,0 UV-I 0 W/m 0,8 C 4,8 C 6,4 km/h (2 Bft) 94,64 %
24.04.2017 01:14 4,8 C 75 % 1023,0 hPa 0,0 l/m 3,2 km/h (1 Bft) SW 227 0 min 0,000 mm 0,0 UV-I 0 W/m 0,8 C 4,8 C 6,4 km/h (2 Bft) 95,45 %
24.04.2017 01:16 4,8 C 75 % 1023,1 hPa 0,0 l/m 4,5 km/h (1 Bft) SW 227 0 min 0,000 mm 0,0 UV-I 0 W/m 0,8 C 4,8 C 6,4 km/h (2 Bft) 97,87 %
24.04.2017 01:18 4,8 C 75 % 1023,1 hPa 0,0 l/m 4,1 km/h (1 Bft) SW 227 0 min 0,000 mm 0,0 UV-I 0 W/m 0,8 C 4,8 C 6,4 km/h (2 Bft) 90,91 %
24.04.2017 01:20 4,8 C 75 % 1023,1 hPa 0,0 l/m 5,2 km/h (1 Bft) SW 225 0 min 0,000 mm 0,0 UV-I 0 W/m 0,8 C 4,8 C 6,4 km/h (2 Bft) 97,87 %
24.04.2017 01:22 4,8 C 76 % 1023,0 hPa 0,0 l/m 3,6 km/h (1 Bft) SW 225 0 min 0,000 mm 0,0 UV-I 0 W/m 0,9 C 4,8 C 6,4 km/h (2 Bft) 94,87 %
24.04.2017 01:24 4,7 C 76 % 1023,0 hPa 0,0 l/m 2,8 km/h (1 Bft) SW 225 0 min 0,000 mm 0,0 UV-I 0 W/m 0,8 C 4,7 C 4,8 km/h (1 Bft) 98,11 %
24.04.2017 01:26 4,7 C 77 % 1023,0 hPa 0,0 l/m 3,3 km/h (1 Bft) SW 225 0 min 0,000 mm 0,0 UV-I 0 W/m 1,0 C 4,7 C 4,8 km/h (1 Bft) 96,15 %
24.04.2017 01:28 4,6 C 77 % 1023,0 hPa 0,0 l/m 3,6 km/h (1 Bft) SW 225 0 min 0,000 mm 0,0 UV-I 0 W/m 0,9 C 4,6 C 4,8 km/h (1 Bft) 97,78 %
24.04.2017 01:30 4,6 C 77 % 1022,9 hPa 0,0 l/m 4,6 km/h (1 Bft) SW 225 0 min 0,000 mm 0,0 UV-I 0 W/m 0,9 C 4,6 C 8,0 km/h (2 Bft) 95,74 %
24.04.2017 01:32 4,6 C 76 % 1022,9 hPa 0,0 l/m 5,7 km/h (1 Bft) SW 219 0 min 0,000 mm 0,0 UV-I 0 W/m 0,7 C 4,6 C 8,0 km/h (2 Bft) 96,23 %
24.04.2017 01:34 4,6 C 76 % 1022,8 hPa 0,0 l/m 4,4 km/h (1 Bft) SW 219 0 min 0,000 mm 0,0 UV-I 0 W/m 0,7 C 4,6 C 6,4 km/h (2 Bft) 100,00 %
24.04.2017 01:36 4,6 C 77 % 1022,8 hPa 0,0 l/m 3,1 km/h (1 Bft) SW 219 0 min 0,000 mm 0,0 UV-I 0 W/m 0,9 C 4,6 C 4,8 km/h (1 Bft) 95,12 %
24.04.2017 01:38 4,6 C 77 % 1022,8 hPa 0,0 l/m 2,9 km/h (1 Bft) SW 219 0 min 0,000 mm 0,0 UV-I 0 W/m 0,9 C 4,6 C 4,8 km/h (1 Bft) 98,00 %
24.04.2017 01:40 4,4 C 77 % 1022,7 hPa 0,0 l/m 2,7 km/h (1 Bft) SW 219 0 min 0,000 mm 0,0 UV-I 0 W/m 0,7 C 4,4 C 4,8 km/h (1 Bft) 97,37 %
24.04.2017 01:42 4,4 C 78 % 1022,7 hPa 0,0 l/m 2,8 km/h (1 Bft) SW 219 0 min 0,000 mm 0,0 UV-I 0 W/m 0,9 C 4,4 C 4,8 km/h (1 Bft) 100,00 %
24.04.2017 01:44 4,3 C 78 % 1022,7 hPa 0,0 l/m 3,8 km/h (1 Bft) SW 219 0 min 0,000 mm 0,0 UV-I 0 W/m 0,8 C 4,3 C 4,8 km/h (1 Bft) 98,21 %
24.04.2017 01:46 4,3 C 79 % 1022,7 hPa 0,0 l/m 4,2 km/h (1 Bft) SW 219 0 min 0,000 mm 0,0 UV-I 0 W/m 1,0 C 4,3 C 6,4 km/h (2 Bft) 100,00 %
24.04.2017 01:48 4,3 C 79 % 1022,7 hPa 0,0 l/m 4,1 km/h (1 Bft) SW 219 0 min 0,000 mm 0,0 UV-I 0 W/m 1,0 C 4,3 C 6,4 km/h (2 Bft) 97,14 %
24.04.2017 01:50 4,3 C 79 % 1022,7 hPa 0,0 l/m 4,1 km/h (1 Bft) SW 219 0 min 0,000 mm 0,0 UV-I 0 W/m 1,0 C 4,3 C 6,4 km/h (2 Bft) 96,23 %
24.04.2017 01:52 4,2 C 80 % 1022,7 hPa 0,0 l/m 4,0 km/h (1 Bft) SW 219 0 min 0,000 mm 0,0 UV-I 0 W/m 1,1 C 4,2 C 4,8 km/h (1 Bft) 98,21 %
24.04.2017 01:54 4,2 C 80 % 1022,6 hPa 0,0 l/m 3,9 km/h (1 Bft) SW 219 0 min 0,000 mm 0,0 UV-I 0 W/m 1,1 C 4,2 C 4,8 km/h (1 Bft) 98,00 %
24.04.2017 01:56 4,2 C 80 % 1022,6 hPa 0,0 l/m 4,6 km/h (1 Bft) SW 225 0 min 0,000 mm 0,0 UV-I 0 W/m 1,1 C 4,2 C 8,0 km/h (2 Bft) 97,87 %
24.04.2017 01:58 4,1 C 81 % 1022,6 hPa 0,0 l/m 5,2 km/h (1 Bft) SW 225 0 min 0,000 mm 0,0 UV-I 0 W/m 1,1 C 4,1 C 8,0 km/h (2 Bft) 100,00 %
24.04.2017 02:00 4,2 C 81 % 1022,6 hPa 0,0 l/m 5,6 km/h (1 Bft) S-SW 212 0 min 0,000 mm 0,0 UV-I 0 W/m 1,2 C 4,2 C 8,0 km/h (2 Bft) 98,11 %
24.04.2017 02:02 4,2 C 81 % 1022,6 hPa 0,0 l/m 4,6 km/h (1 Bft) S-SW 211 0 min 0,000 mm 0,0 UV-I 0 W/m 1,2 C 4,2 C 8,0 km/h (2 Bft) 100,00 %
24.04.2017 02:04 4,2 C 82 % 1022,5 hPa 0,0 l/m 5,4 km/h (1 Bft) S-SW 211 0 min 0,000 mm 0,0 UV-I 0 W/m 1,4 C 4,2 C 8,0 km/h (2 Bft) 100,00 %
24.04.2017 02:06 4,2 C 82 % 1022,5 hPa 0,0 l/m 4,5 km/h (1 Bft) S-SW 211 0 min 0,000 mm 0,0 UV-I 0 W/m 1,4 C 4,2 C 6,4 km/h (2 Bft) 98,18 %
24.04.2017 02:08 4,1 C 82 % 1022,5 hPa 0,0 l/m 4,3 km/h (1 Bft) S-SW 211 0 min 0,000 mm 0,0 UV-I 0 W/m 1,3 C 4,1 C 6,4 km/h (2 Bft) 100,00 %
24.04.2017 02:10 4,1 C 82 % 1022,5 hPa 0,0 l/m 3,5 km/h (1 Bft) S-SW 211 0 min 0,000 mm 0,0 UV-I 0 W/m 1,3 C 4,1 C 4,8 km/h (1 Bft) 100,00 %
24.04.2017 02:12 4,1 C 82 % 1022,5 hPa 0,0 l/m 4,4 km/h (1 Bft) S-SW 211 0 min 0,000 mm 0,0 UV-I 0 W/m 1,3 C 4,1 C 6,4 km/h (2 Bft) 96,00 %
24.04.2017 02:14 4,1 C 82 % 1022,4 hPa 0,0 l/m 3,8 km/h (1 Bft) S-SW 211 0 min 0,000 mm 0,0 UV-I 0 W/m 1,3 C 4,1 C 6,4 km/h (2 Bft) 100,00 %
24.04.2017 02:16 4,1 C 82 % 1022,4 hPa 0,0 l/m 3,8 km/h (1 Bft) S-SW 211 0 min 0,000 mm 0,0 UV-I 0 W/m 1,3 C 4,1 C 6,4 km/h (2 Bft) 95,74 %
24.04.2017 02:18 4,0 C 82 % 1022,4 hPa 0,0 l/m 3,5 km/h (1 Bft) S-SW 211 0 min 0,000 mm 0,0 UV-I 0 W/m 1,2 C 4,0 C 4,8 km/h (1 Bft) 93,62 %
24.04.2017 02:20 3,9 C 82 % 1022,4 hPa 0,0 l/m 4,4 km/h (1 Bft) S-SW 211 0 min 0,000 mm 0,0 UV-I 0 W/m 1,1 C 3,9 C 6,4 km/h (2 Bft) 100,00 %
24.04.2017 02:22 3,9 C 83 % 1022,4 hPa 0,0 l/m 4,3 km/h (1 Bft) S-SW 211 0 min 0,000 mm 0,0 UV-I 0 W/m 1,3 C 3,9 C 6,4 km/h (2 Bft) 100,00 %
24.04.2017 02:24 3,9 C 83 % 1022,4 hPa 0,0 l/m 4,4 km/h (1 Bft) S-SW 211 0 min 0,000 mm 0,0 UV-I 0 W/m 1,3 C 3,9 C 6,4 km/h (2 Bft) 98,00 %
24.04.2017 02:26 3,8 C 83 % 1022,4 hPa 0,0 l/m 4,6 km/h (1 Bft) S-SW 211 0 min 0,000 mm 0,0 UV-I 0 W/m 1,2 C 3,8 C 8,0 km/h (2 Bft) 98,00 %
24.04.2017 02:28 3,8 C 84 % 1022,4 hPa 0,0 l/m 4,2 km/h (1 Bft) S-SW 211 0 min 0,000 mm 0,0 UV-I 0 W/m 1,4 C 3,8 C 6,4 km/h (2 Bft) 97,87 %
24.04.2017 02:30 3,8 C 84 % 1022,3 hPa 0,0 l/m 4,8 km/h (1 Bft) S-SW 211 0 min 0,000 mm 0,0 UV-I 0 W/m 1,4 C 3,8 C 6,4 km/h (2 Bft) 93,62 %
24.04.2017 02:32 3,7 C 84 % 1022,3 hPa 0,0 l/m 3,1 km/h (1 Bft) S-SW 211 0 min 0,000 mm 0,0 UV-I 0 W/m 1,3 C 3,7 C 4,8 km/h (1 Bft) 97,87 %
24.04.2017 02:34 3,6 C 85 % 1022,3 hPa 0,0 l/m 2,3 km/h (1 Bft) S-SW 211 0 min 0,000 mm 0,0 UV-I 0 W/m 1,3 C 3,6 C 4,8 km/h (1 Bft) 94,74 %
24.04.2017 02:36 3,6 C 85 % 1022,4 hPa 0,0 l/m 3,3 km/h (1 Bft) S-SW 211 0 min 0,000 mm 0,0 UV-I 0 W/m 1,3 C 3,6 C 6,4 km/h (2 Bft) 98,11 %
24.04.2017 02:38 3,4 C 85 % 1022,3 hPa 0,0 l/m 2,9 km/h (1 Bft) S 188 0 min 0,000 mm 0,0 UV-I 0 W/m 1,1 C 3,4 C 4,8 km/h (1 Bft) 95,74 %
24.04.2017 02:40 3,4 C 86 % 1022,3 hPa 0,0 l/m 2,5 km/h (1 Bft) S 187 0 min 0,000 mm 0,0 UV-I 0 W/m 1,3 C 3,4 C 4,8 km/h (1 Bft) 96,00 %
24.04.2017 02:42 3,5 C 86 % 1022,3 hPa 0,0 l/m 2,3 km/h (1 Bft) S 187 0 min 0,000 mm 0,0 UV-I 0 W/m 1,4 C 3,5 C 4,8 km/h (1 Bft) 97,56 %
24.04.2017 02:44 3,6 C 86 % 1022,3 hPa 0,0 l/m 1,6 km/h (1 Bft) S 187 0 min 0,000 mm 0,0 UV-I 0 W/m 1,5 C 3,6 C 4,8 km/h (1 Bft) 96,00 %
24.04.2017 02:46 3,6 C 86 % 1022,2 hPa 0,0 l/m 1,0 km/h (0 Bft) S 187 0 min 0,000 mm 0,0 UV-I 0 W/m 1,5 C 3,6 C 3,2 km/h (1 Bft) 97,87 %
24.04.2017 02:48 3,6 C 85 % 1022,2 hPa 0,0 l/m 1,6 km/h (1 Bft) S 187 0 min 0,000 mm 0,0 UV-I 0 W/m 1,3 C 3,6 C 3,2 km/h (1 Bft) 93,75 %
24.04.2017 02:50 3,6 C 86 % 1022,2 hPa 0,0 l/m 2,0 km/h (1 Bft) S 187 0 min 0,000 mm 0,0 UV-I 0 W/m 1,5 C 3,6 C 3,2 km/h (1 Bft) 100,00 %
24.04.2017 02:52 3,6 C 86 % 1022,2 hPa 0,0 l/m 1,2 km/h (1 Bft) S 187 0 min 0,000 mm 0,0 UV-I 0 W/m 1,5 C 3,6 C 3,2 km/h (1 Bft) 92,00 %
24.04.2017 02:54 3,6 C 86 % 1022,2 hPa 0,0 l/m 1,4 km/h (1 Bft) S 187 0 min 0,000 mm 0,0 UV-I 0 W/m 1,5 C 3,6 C 3,2 km/h (1 Bft) 96,43 %
24.04.2017 02:56 3,5 C 86 % 1022,2 hPa 0,0 l/m 1,9 km/h (1 Bft) S 187 0 min 0,000 mm 0,0 UV-I 0 W/m 1,4 C 3,5 C 3,2 km/h (1 Bft) 94,44 %
24.04.2017 02:58 3,5 C 86 % 1022,1 hPa 0,0 l/m 2,1 km/h (1 Bft) S 187 0 min 0,000 mm 0,0 UV-I 0 W/m 1,4 C 3,5 C 3,2 km/h (1 Bft) 95,74 %
24.04.2017 03:00 3,4 C 86 % 1022,1 hPa 0,0 l/m 3,2 km/h (1 Bft) S 187 0 min 0,000 mm 0,0 UV-I 0 W/m 1,3 C 3,4 C 4,8 km/h (1 Bft) 97,87 %
24.04.2017 03:02 3,4 C 86 % 1022,1 hPa 0,0 l/m 2,2 km/h (1 Bft) S 187 0 min 0,000 mm 0,0 UV-I 0 W/m 1,3 C 3,4 C 3,2 km/h (1 Bft) 95,74 %
24.04.2017 03:04 3,4 C 86 % 1022,1 hPa 0,0 l/m 3,1 km/h (1 Bft) S 187 0 min 0,000 mm 0,0 UV-I 0 W/m 1,3 C 3,4 C 3,2 km/h (1 Bft) 96,23 %
24.04.2017 03:06 3,3 C 86 % 1022,1 hPa 0,0 l/m 2,1 km/h (1 Bft) S 187 0 min 0,000 mm 0,0 UV-I 0 W/m 1,2 C 3,3 C 3,2 km/h (1 Bft) 98,00 %
24.04.2017 03:08 3,2 C 86 % 1022,0 hPa 0,0 l/m 1,7 km/h (1 Bft) S 187 0 min 0,000 mm 0,0 UV-I 0 W/m 1,1 C 3,2 C 3,2 km/h (1 Bft) 97,37 %
24.04.2017 03:10 3,0 C 87 % 1022,0 hPa 0,0 l/m 2,5 km/h (1 Bft) S 187 0 min 0,000 mm 0,0 UV-I 0 W/m 1,1 C 3,0 C 4,8 km/h (1 Bft) 100,00 %
24.04.2017 03:12 3,0 C 88 % 1022,1 hPa 0,0 l/m 2,2 km/h (1 Bft) S 187 0 min 0,000 mm 0,0 UV-I 0 W/m 1,2 C 3,0 C 3,2 km/h (1 Bft) 98,11 %
24.04.2017 03:14 3,0 C 88 % 1022,0 hPa 0,0 l/m 0,9 km/h (0 Bft) S 187 0 min 0,000 mm 0,0 UV-I 0 W/m 1,2 C 3,0 C 3,2 km/h (1 Bft) 100,00 %
24.04.2017 03:16 3,0 C 88 % 1022,0 hPa 0,0 l/m 1,3 km/h (1 Bft) S 187 0 min 0,000 mm 0,0 UV-I 0 W/m 1,2 C 3,0 C 3,2 km/h (1 Bft) 100,00 %
24.04.2017 03:18 2,9 C 88 % 1022,0 hPa 0,0 l/m 1,2 km/h (1 Bft) S 187 0 min 0,000 mm 0,0 UV-I 0 W/m 1,1 C 2,9 C 3,2 km/h (1 Bft) 100,00 %
24.04.2017 03:20 2,8 C 88 % 1022,0 hPa 0,0 l/m 1,4 km/h (1 Bft) S 187 0 min 0,000 mm 0,0 UV-I 0 W/m 1,0 C 2,8 C 3,2 km/h (1 Bft) 100,00 %
24.04.2017 03:22 2,8 C 88 % 1022,0 hPa 0,0 l/m 2,0 km/h (1 Bft) S 187 0 min 0,000 mm 0,0 UV-I 0 W/m 1,0 C 2,8 C 3,2 km/h (1 Bft) 100,00 %
24.04.2017 03:24 2,8 C 89 % 1021,9 hPa 0,0 l/m 1,8 km/h (1 Bft) S 187 0 min 0,000 mm 0,0 UV-I 0 W/m 1,2 C 2,8 C 4,8 km/h (1 Bft) 97,44 %
24.04.2017 03:26 2,8 C 89 % 1021,9 hPa 0,0 l/m 1,7 km/h (1 Bft) S 187 0 min 0,000 mm 0,0 UV-I 0 W/m 1,2 C 2,8 C 3,2 km/h (1 Bft) 100,00 %
24.04.2017 03:28 2,8 C 89 % 1021,9 hPa 0,0 l/m 3,3 km/h (1 Bft) S 187 0 min 0,000 mm 0,0 UV-I 0 W/m 1,2 C 2,8 C 4,8 km/h (1 Bft) 97,44 %
24.04.2017 03:30 2,8 C 89 % 1021,9 hPa 0,0 l/m 2,8 km/h (1 Bft) S 187 0 min 0,000 mm 0,0 UV-I 0 W/m 1,2 C 2,8 C 4,8 km/h (1 Bft) 98,11 %
24.04.2017 03:32 2,7 C 88 % 1021,9 hPa 0,0 l/m 2,8 km/h (1 Bft) S 187 0 min 0,000 mm 0,0 UV-I 0 W/m 0,9 C 2,7 C 4,8 km/h (1 Bft) 100,00 %
24.04.2017 03:34 2,7 C 88 % 1021,9 hPa 0,0 l/m 2,7 km/h (1 Bft) S 187 0 min 0,000 mm 0,0 UV-I 0 W/m 0,9 C 2,7 C 4,8 km/h (1 Bft) 98,04 %
24.04.2017 03:36 2,7 C 89 % 1021,8 hPa 0,0 l/m 2,0 km/h (1 Bft) S 187 0 min 0,000 mm 0,0 UV-I 0 W/m 1,1 C 2,7 C 3,2 km/h (1 Bft) 100,00 %
24.04.2017 03:38 2,6 C 89 % 1021,9 hPa 0,0 l/m 1,6 km/h (1 Bft) S 187 0 min 0,000 mm 0,0 UV-I 0 W/m 1,0 C 2,6 C 3,2 km/h (1 Bft) 100,00 %
24.04.2017 03:40 2,5 C 89 % 1021,9 hPa 0,0 l/m 3,4 km/h (1 Bft) S 187 0 min 0,000 mm 0,0 UV-I 0 W/m 0,9 C 2,5 C 4,8 km/h (1 Bft) 100,00 %
24.04.2017 03:42 2,4 C 89 % 1021,8 hPa 0,0 l/m 2,9 km/h (1 Bft) S 187 0 min 0,000 mm 0,0 UV-I 0 W/m 0,8 C 2,4 C 4,8 km/h (1 Bft) 98,11 %
24.04.2017 03:44 2,4 C 89 % 1021,8 hPa 0,0 l/m 2,8 km/h (1 Bft) S 187 0 min 0,000 mm 0,0 UV-I 0 W/m 0,8 C 2,4 C 4,8 km/h (1 Bft) 97,62 %
24.04.2017 03:46 2,3 C 89 % 1021,8 hPa 0,0 l/m 1,4 km/h (1 Bft) S 187 0 min 0,000 mm 0,0 UV-I 0 W/m 0,7 C 2,3 C 3,2 km/h (1 Bft) 98,11 %
24.04.2017 03:48 2,3 C 89 % 1021,7 hPa 0,0 l/m 2,0 km/h (1 Bft) S 187 0 min 0,000 mm 0,0 UV-I 0 W/m 0,7 C 2,3 C 4,8 km/h (1 Bft) 98,00 %
24.04.2017 03:50 2,2 C 89 % 1021,8 hPa 0,0 l/m 2,5 km/h (1 Bft) S 187 0 min 0,000 mm 0,0 UV-I 0 W/m 0,6 C 2,2 C 4,8 km/h (1 Bft) 96,55 %
24.04.2017 03:52 2,2 C 90 % 1021,7 hPa 0,0 l/m 2,9 km/h (1 Bft) S 187 0 min 0,000 mm 0,0 UV-I 0 W/m 0,7 C 2,2 C 4,8 km/h (1 Bft) 100,00 %
24.04.2017 03:54 2,1 C 89 % 1021,7 hPa 0,0 l/m 2,5 km/h (1 Bft) S 187 0 min 0,000 mm 0,0 UV-I 0 W/m 0,5 C 2,1 C 4,8 km/h (1 Bft) 100,00 %
24.04.2017 03:56 1,9 C 89 % 1021,7 hPa 0,0 l/m 2,2 km/h (1 Bft) S 187 0 min 0,000 mm 0,0 UV-I 0 W/m 0,3 C 1,9 C 3,2 km/h (1 Bft) 98,00 %
24.04.2017 03:58 1,8 C 90 % 1021,7 hPa 0,0 l/m 2,2 km/h (1 Bft) S 187 0 min 0,000 mm 0,0 UV-I 0 W/m 0,3 C 1,8 C 3,2 km/h (1 Bft) 97,37 %
24.04.2017 04:00 1,7 C 90 % 1021,7 hPa 0,0 l/m 1,9 km/h (1 Bft) S 187 0 min 0,000 mm 0,0 UV-I 0 W/m 0,2 C 1,7 C 3,2 km/h (1 Bft) 100,00 %
24.04.2017 04:02 1,6 C 90 % 1021,7 hPa 0,0 l/m 2,1 km/h (1 Bft) S 187 0 min 0,000 mm 0,0 UV-I 0 W/m 0,1 C 1,6 C 3,2 km/h (1 Bft) 94,29 %
24.04.2017 04:04 1,6 C 90 % 1021,6 hPa 0,0 l/m 2,4 km/h (1 Bft) S 187 0 min 0,000 mm 0,0 UV-I 0 W/m 0,1 C 1,6 C 3,2 km/h (1 Bft) 96,00 %
24.04.2017 04:06 1,6 C 91 % 1021,6 hPa 0,0 l/m 2,3 km/h (1 Bft) S 187 0 min 0,000 mm 0,0 UV-I 0 W/m 0,3 C 1,6 C 3,2 km/h (1 Bft) 97,62 %
24.04.2017 04:08 1,6 C 91 % 1021,6 hPa 0,0 l/m 2,7 km/h (1 Bft) S 187 0 min 0,000 mm 0,0 UV-I 0 W/m 0,3 C 1,6 C 4,8 km/h (1 Bft) 97,56 %
24.04.2017 04:10 1,6 C 91 % 1021,6 hPa 0,0 l/m 2,9 km/h (1 Bft) S 187 0 min 0,000 mm 0,0 UV-I 0 W/m 0,3 C 1,6 C 4,8 km/h (1 Bft) 94,34 %
24.04.2017 04:12 1,6 C 91 % 1021,6 hPa 0,0 l/m 2,2 km/h (1 Bft) S 187 0 min 0,000 mm 0,0 UV-I 0 W/m 0,3 C 1,6 C 4,8 km/h (1 Bft) 94,00 %
24.04.2017 04:14 1,6 C 91 % 1021,6 hPa 0,0 l/m 0,9 km/h (0 Bft) S 187 0 min 0,000 mm 0,0 UV-I 0 W/m 0,3 C 1,6 C 3,2 km/h (1 Bft) 95,12 %
24.04.2017 04:16 1,6 C 91 % 1021,7 hPa 0,0 l/m 0,2 km/h (0 Bft) S 187 0 min 0,000 mm 0,0 UV-I 0 W/m 0,3 C 1,6 C 1,6 km/h (1 Bft) 98,11 %
24.04.2017 04:18 1,6 C 91 % 1021,6 hPa 0,0 l/m 0,0 km/h (0 Bft) S 187 0 min 0,000 mm 0,0 UV-I 0 W/m 0,3 C 1,6 C 0,0 km/h (0 Bft) 95,74 %
24.04.2017 04:20 1,6 C 91 % 1021,6 hPa 0,0 l/m 0,0 km/h (0 Bft) S 187 0 min 0,000 mm 0,0 UV-I 0 W/m 0,3 C 1,6 C 1,6 km/h (1 Bft) 97,37 %
24.04.2017 04:22 1,5 C 91 % 1021,6 hPa 0,0 l/m 0,0 km/h (0 Bft) S 187 0 min 0,000 mm 0,0 UV-I 0 W/m 0,2 C 1,5 C 0,0 km/h (0 Bft) 94,00 %
24.04.2017 04:24 1,4 C 91 % 1021,6 hPa 0,0 l/m 0,0 km/h (0 Bft) S 187 0 min 0,000 mm 0,0 UV-I 0 W/m 0,1 C 1,4 C 0,0 km/h (0 Bft) 98,00 %
24.04.2017 04:26 1,4 C 91 % 1021,6 hPa 0,0 l/m 0,0 km/h (0 Bft) S 187 0 min 0,000 mm 0,0 UV-I 0 W/m 0,1 C 1,4 C 0,0 km/h (0 Bft) 95,74 %
24.04.2017 04:28 1,3 C 91 % 1021,6 hPa 0,0 l/m 0,0 km/h (0 Bft) S 187 0 min 0,000 mm 0,0 UV-I 0 W/m -0,0 C 1,3 C 0,0 km/h (0 Bft) 92,68 %
24.04.2017 04:30 1,2 C 91 % 1021,6 hPa 0,0 l/m 2,3 km/h (1 Bft) S 187 0 min 0,000 mm 0,0 UV-I 0 W/m -0,1 C 1,2 C 3,2 km/h (1 Bft) 96,00 %
24.04.2017 04:32 1,0 C 91 % 1021,6 hPa 0,0 l/m 3,2 km/h (1 Bft) S 187 0 min 0,000 mm 0,0 UV-I 0 W/m -0,3 C 1,0 C 4,8 km/h (1 Bft) 96,00 %
24.04.2017 04:34 0,9 C 92 % 1021,6 hPa 0,0 l/m 1,3 km/h (1 Bft) S 187 0 min 0,000 mm 0,0 UV-I 0 W/m -0,2 C 0,9 C 3,2 km/h (1 Bft) 95,12 %
24.04.2017 04:36 1,0 C 92 % 1021,5 hPa 0,0 l/m 0,0 km/h (0 Bft) S 187 0 min 0,000 mm 0,0 UV-I 0 W/m -0,2 C 1,0 C 0,0 km/h (0 Bft) 92,45 %
24.04.2017 04:38 1,1 C 93 % 1021,5 hPa 0,0 l/m 0,0 km/h (0 Bft) S 187 0 min 0,000 mm 0,0 UV-I 0 W/m 0,1 C 1,1 C 1,6 km/h (1 Bft) 91,49 %
24.04.2017 04:40 1,0 C 92 % 1021,5 hPa 0,0 l/m 0,6 km/h (0 Bft) S 187 0 min 0,000 mm 0,0 UV-I 0 W/m -0,2 C 1,0 C 3,2 km/h (1 Bft) 96,00 %
24.04.2017 04:42 0,9 C 92 % 1021,5 hPa 0,0 l/m 0,5 km/h (0 Bft) S 187 0 min 0,000 mm 0,0 UV-I 0 W/m -0,2 C 0,9 C 1,6 km/h (1 Bft) 95,83 %
24.04.2017 04:44 0,8 C 92 % 1021,4 hPa 0,0 l/m 0,1 km/h (0 Bft) S 187 0 min 0,000 mm 0,0 UV-I 0 W/m -0,3 C 0,8 C 1,6 km/h (1 Bft) 94,03 %
24.04.2017 04:46 0,8 C 92 % 1021,4 hPa 0,0 l/m 0,0 km/h (0 Bft) S 187 0 min 0,000 mm 0,0 UV-I 0 W/m -0,3 C 0,8 C 0,0 km/h (0 Bft) 95,74 %
24.04.2017 04:48 0,7 C 93 % 1021,4 hPa 0,0 l/m 0,1 km/h (0 Bft) S 187 0 min 0,000 mm 0,0 UV-I 0 W/m -0,3 C 0,7 C 1,6 km/h (1 Bft) 89,74 %
24.04.2017 04:50 0,7 C 93 % 1021,4 hPa 0,0 l/m 0,5 km/h (0 Bft) S 187 0 min 0,000 mm 0,0 UV-I 0 W/m -0,3 C 0,7 C 1,6 km/h (1 Bft) 95,74 %
24.04.2017 04:52 0,6 C 93 % 1021,4 hPa 0,0 l/m 0,6 km/h (0 Bft) S 187 0 min 0,000 mm 0,0 UV-I 0 W/m -0,4 C 0,6 C 1,6 km/h (1 Bft) 90,00 %
24.04.2017 04:54 0,5 C 93 % 1021,3 hPa 0,0 l/m 0,8 km/h (0 Bft) S 187 0 min 0,000 mm 0,0 UV-I 0 W/m -0,5 C 0,5 C 1,6 km/h (1 Bft) 94,00 %
24.04.2017 04:56 0,4 C 92 % 1021,3 hPa 0,0 l/m 1,5 km/h (1 Bft) S 187 0 min 0,000 mm 0,0 UV-I 0 W/m -0,7 C 0,4 C 3,2 km/h (1 Bft) 94,00 %
24.04.2017 04:58 0,3 C 93 % 1021,3 hPa 0,0 l/m 1,7 km/h (1 Bft) S 187 0 min 0,000 mm 0,0 UV-I 0 W/m -0,7 C 0,3 C 3,2 km/h (1 Bft) 92,68 %
24.04.2017 05:00 0,4 C 93 % 1021,3 hPa 0,0 l/m 1,6 km/h (1 Bft) S 187 0 min 0,000 mm 0,0 UV-I 0 W/m -0,6 C 0,4 C 3,2 km/h (1 Bft) 95,74 %
24.04.2017 05:02 0,4 C 93 % 1021,3 hPa 0,0 l/m 1,2 km/h (1 Bft) S 187 0 min 0,000 mm 0,0 UV-I 0 W/m -0,6 C 0,4 C 3,2 km/h (1 Bft) 96,23 %
24.04.2017 05:04 0,5 C 93 % 1021,4 hPa 0,0 l/m 0,3 km/h (0 Bft) S 187 0 min 0,000 mm 0,0 UV-I 0 W/m -0,5 C 0,5 C 1,6 km/h (1 Bft) 97,37 %
24.04.2017 05:06 0,5 C 93 % 1021,4 hPa 0,0 l/m 1,2 km/h (1 Bft) S 187 0 min 0,000 mm 0,0 UV-I 0 W/m -0,5 C 0,5 C 3,2 km/h (1 Bft) 94,34 %
24.04.2017 05:08 0,4 C 93 % 1021,3 hPa 0,0 l/m 1,9 km/h (1 Bft) S 187 0 min 0,000 mm 0,0 UV-I 0 W/m -0,6 C 0,4 C 3,2 km/h (1 Bft) 97,37 %
24.04.2017 05:10 0,4 C 93 % 1021,3 hPa 0,0 l/m 2,7 km/h (1 Bft) S 187 0 min 0,000 mm 0,0 UV-I 0 W/m -0,6 C 0,4 C 3,2 km/h (1 Bft) 98,11 %
24.04.2017 05:12 0,4 C 94 % 1021,3 hPa 0,0 l/m 3,3 km/h (1 Bft) S 187 0 min 0,000 mm 0,0 UV-I 0 W/m -0,5 C 0,4 C 4,8 km/h (1 Bft) 95,74 %
24.04.2017 05:14 0,4 C 93 % 1021,2 hPa 0,0 l/m 3,3 km/h (1 Bft) S 187 0 min 0,000 mm 0,0 UV-I 0 W/m -0,6 C 0,4 C 4,8 km/h (1 Bft) 97,87 %
24.04.2017 05:16 0,3 C 93 % 1021,2 hPa 0,0 l/m 2,1 km/h (1 Bft) S 187 0 min 0,000 mm 0,0 UV-I 0 W/m -0,7 C 0,3 C 3,2 km/h (1 Bft) 97,56 %
24.04.2017 05:18 0,3 C 94 % 1021,3 hPa 0,0 l/m 0,6 km/h (0 Bft) S 187 0 min 0,000 mm 0,0 UV-I 0 W/m -0,5 C 0,3 C 1,6 km/h (1 Bft) 97,87 %
24.04.2017 05:20 0,4 C 94 % 1021,2 hPa 0,0 l/m 0,0 km/h (0 Bft) S 187 0 min 0,000 mm 0,0 UV-I 0 W/m -0,5 C 0,4 C 0,0 km/h (0 Bft) 97,87 %
24.04.2017 05:22 0,5 C 94 % 1021,2 hPa 0,0 l/m 0,0 km/h (0 Bft) S 187 0 min 0,000 mm 0,0 UV-I 0 W/m -0,4 C 0,5 C 0,0 km/h (0 Bft) 96,43 %
24.04.2017 05:24 0,5 C 94 % 1021,2 hPa 0,0 l/m 0,0 km/h (0 Bft) S 187 0 min 0,000 mm 0,0 UV-I 0 W/m -0,4 C 0,5 C 0,0 km/h (0 Bft) 97,87 %
24.04.2017 05:26 0,4 C 93 % 1021,2 hPa 0,0 l/m 0,0 km/h (0 Bft) S 187 0 min 0,000 mm 0,0 UV-I 0 W/m -0,6 C 0,4 C 0,0 km/h (0 Bft) 94,87 %
24.04.2017 05:28 0,4 C 93 % 1021,2 hPa 0,0 l/m 1,0 km/h (0 Bft) S 187 0 min 0,000 mm 0,0 UV-I 0 W/m -0,6 C 0,4 C 3,2 km/h (1 Bft) 100,00 %
24.04.2017 05:30 0,3 C 93 % 1021,2 hPa 0,0 l/m 0,6 km/h (0 Bft) S 187 0 min 0,000 mm 0,0 UV-I 0 W/m -0,7 C 0,3 C 3,2 km/h (1 Bft) 97,56 %
24.04.2017 05:32 0,3 C 93 % 1021,2 hPa 0,0 l/m 3,0 km/h (1 Bft) S 187 0 min 0,000 mm 0,0 UV-I 0 W/m -0,7 C 0,3 C 3,2 km/h (1 Bft) 98,11 %
24.04.2017 05:34 0,2 C 93 % 1021,1 hPa 0,0 l/m 2,6 km/h (1 Bft) S 187 0 min 0,000 mm 0,0 UV-I 0 W/m -0,8 C 0,2 C 3,2 km/h (1 Bft) 97,87 %
24.04.2017 05:36 0,2 C 93 % 1021,1 hPa 0,0 l/m 1,5 km/h (1 Bft) S 187 0 min 0,000 mm 0,0 UV-I 0 W/m -0,8 C 0,2 C 1,6 km/h (1 Bft) 98,11 %
24.04.2017 05:38 0,3 C 94 % 1021,1 hPa 0,0 l/m 0,4 km/h (0 Bft) S 187 0 min 0,000 mm 0,0 UV-I 0 W/m -0,5 C 0,3 C 1,6 km/h (1 Bft) 97,56 %
24.04.2017 05:40 0,4 C 94 % 1021,1 hPa 0,0 l/m 0,0 km/h (0 Bft) S 187 0 min 0,000 mm 0,0 UV-I 0 W/m -0,5 C 0,4 C 0,0 km/h (0 Bft) 100,00 %
24.04.2017 05:42 0,5 C 94 % 1021,0 hPa 0,0 l/m 0,0 km/h (0 Bft) S 187 0 min 0,000 mm 0,0 UV-I 0 W/m -0,4 C 0,5 C 1,6 km/h (1 Bft) 96,00 %
24.04.2017 05:44 0,4 C 94 % 1021,0 hPa 0,0 l/m 0,7 km/h (0 Bft) S 187 0 min 0,000 mm 0,0 UV-I 3 W/m -0,5 C 0,4 C 3,2 km/h (1 Bft) 98,00 %
24.04.2017 05:46 0,4 C 93 % 1021,0 hPa 0,0 l/m 0,8 km/h (0 Bft) S 187 0 min 0,000 mm 0,0 UV-I 5 W/m -0,6 C 0,4 C 1,6 km/h (1 Bft) 97,37 %
24.04.2017 05:48 0,3 C 93 % 1021,0 hPa 0,0 l/m 0,0 km/h (0 Bft) S 187 0 min 0,000 mm 0,0 UV-I 5 W/m -0,7 C 0,3 C 0,0 km/h (0 Bft) 97,87 %
24.04.2017 05:50 0,3 C 94 % 1020,9 hPa 0,0 l/m 0,0 km/h (0 Bft) S 187 0 min 0,000 mm 0,0 UV-I 5 W/m -0,5 C 0,3 C 0,0 km/h (0 Bft) 97,87 %
24.04.2017 05:52 0,3 C 94 % 1020,9 hPa 0,0 l/m 0,0 km/h (0 Bft) S 187 0 min 0,000 mm 0,0 UV-I 6 W/m -0,5 C 0,3 C 0,0 km/h (0 Bft) 98,11 %
24.04.2017 05:54 0,3 C 94 % 1020,9 hPa 0,0 l/m 0,2 km/h (0 Bft) S 187 0 min 0,000 mm 0,0 UV-I 7 W/m -0,5 C 0,3 C 1,6 km/h (1 Bft) 94,00 %
24.04.2017 05:56 0,3 C 94 % 1020,8 hPa 0,0 l/m 0,1 km/h (0 Bft) S 187 0 min 0,000 mm 0,0 UV-I 7 W/m -0,5 C 0,3 C 1,6 km/h (1 Bft) 100,00 %
24.04.2017 05:58 0,2 C 93 % 1020,8 hPa 0,0 l/m 0,0 km/h (0 Bft) S 187 0 min 0,000 mm 0,0 UV-I 7 W/m -0,8 C 0,2 C 1,6 km/h (1 Bft) 97,87 %
24.04.2017 06:00 0,1 C 93 % 1020,8 hPa 0,0 l/m 0,0 km/h (0 Bft) S 187 0 min 0,000 mm 0,0 UV-I 9 W/m -0,9 C 0,1 C 0,0 km/h (0 Bft) 100,00 %
24.04.2017 06:02 0,1 C 94 % 1020,9 hPa 0,0 l/m 0,0 km/h (0 Bft) S 187 0 min 0,000 mm 0,0 UV-I 11 W/m -0,7 C 0,1 C 1,6 km/h (1 Bft) 96,23 %
24.04.2017 06:04 0,1 C 94 % 1020,8 hPa 0,0 l/m 0,4 km/h (0 Bft) S 187 0 min 0,000 mm 0,0 UV-I 12 W/m -0,7 C 0,1 C 1,6 km/h (1 Bft) 100,00 %
24.04.2017 06:06 0,0 C 94 % 1020,8 hPa 0,0 l/m 0,2 km/h (0 Bft) S 187 0 min 0,000 mm 0,0 UV-I 15 W/m -0,8 C 0,0 C 1,6 km/h (1 Bft) 97,14 %
24.04.2017 06:08 0,0 C 94 % 1020,8 hPa 0,0 l/m 1,2 km/h (1 Bft) S 187 2 min 0,000 mm 0,0 UV-I 16 W/m -0,8 C 0,0 C 3,2 km/h (1 Bft) 97,44 %
24.04.2017 06:10 0,0 C 94 % 1020,8 hPa 0,0 l/m 0,7 km/h (0 Bft) S 187 2 min 0,000 mm 0,0 UV-I 19 W/m -0,8 C 0,0 C 3,2 km/h (1 Bft) 98,00 %
24.04.2017 06:12 0,1 C 94 % 1020,8 hPa 0,0 l/m 0,8 km/h (0 Bft) S 187 2 min 0,000 mm 0,0 UV-I 23 W/m -0,7 C 0,1 C 3,2 km/h (1 Bft) 98,00 %
24.04.2017 06:14 0,2 C 94 % 1020,8 hPa 0,0 l/m 0,6 km/h (0 Bft) S 187 2 min 0,000 mm 0,0 UV-I 25 W/m -0,6 C 0,2 C 1,6 km/h (1 Bft) 98,00 %
24.04.2017 06:16 0,2 C 94 % 1020,8 hPa 0,0 l/m 0,1 km/h (0 Bft) S 187 2 min 0,000 mm 0,0 UV-I 27 W/m -0,6 C 0,2 C 1,6 km/h (1 Bft) 100,00 %
24.04.2017 06:18 0,3 C 94 % 1020,8 hPa 0,0 l/m 0,3 km/h (0 Bft) S 187 2 min 0,000 mm 0,0 UV-I 30 W/m -0,5 C 0,3 C 1,6 km/h (1 Bft) 97,37 %
24.04.2017 06:20 0,3 C 94 % 1020,8 hPa 0,0 l/m 1,6 km/h (1 Bft) S 187 2 min 0,000 mm 0,0 UV-I 36 W/m -0,5 C 0,3 C 3,2 km/h (1 Bft) 100,00 %
24.04.2017 06:22 0,3 C 94 % 1020,8 hPa 0,0 l/m 1,4 km/h (1 Bft) S 187 2 min 0,000 mm 0,0 UV-I 40 W/m -0,5 C 0,3 C 4,8 km/h (1 Bft) 95,12 %
24.04.2017 06:24 0,3 C 94 % 1020,8 hPa 0,0 l/m 0,5 km/h (0 Bft) S 187 2 min 0,000 mm 0,0 UV-I 46 W/m -0,5 C 0,3 C 1,6 km/h (1 Bft) 96,23 %
24.04.2017 06:26 0,2 C 94 % 1020,8 hPa 0,0 l/m 0,2 km/h (0 Bft) S 187 2 min 0,000 mm 0,0 UV-I 49 W/m -0,6 C 0,2 C 1,6 km/h (1 Bft) 98,00 %
24.04.2017 06:28 0,2 C 94 % 1020,8 hPa 0,0 l/m 0,7 km/h (0 Bft) S 187 2 min 0,000 mm 0,0 UV-I 52 W/m -0,6 C 0,2 C 1,6 km/h (1 Bft) 96,00 %
24.04.2017 06:30 0,2 C 94 % 1020,8 hPa 0,0 l/m 1,6 km/h (1 Bft) S 187 2 min 0,000 mm 0,0 UV-I 57 W/m -0,6 C 0,2 C 3,2 km/h (1 Bft) 97,56 %
24.04.2017 06:32 0,1 C 94 % 1020,8 hPa 0,0 l/m 1,7 km/h (1 Bft) S 187 2 min 0,000 mm 0,0 UV-I 57 W/m -0,7 C 0,1 C 3,2 km/h (1 Bft) 100,00 %
24.04.2017 06:34 0,1 C 94 % 1020,8 hPa 0,0 l/m 1,8 km/h (1 Bft) S 187 2 min 0,000 mm 0,0 UV-I 59 W/m -0,7 C 0,1 C 3,2 km/h (1 Bft) 94,74 %
24.04.2017 06:36 0,2 C 94 % 1020,8 hPa 0,0 l/m 0,6 km/h (0 Bft) S 187 2 min 0,000 mm 0,0 UV-I 61 W/m -0,6 C 0,2 C 1,6 km/h (1 Bft) 100,00 %
24.04.2017 06:38 0,2 C 94 % 1020,8 hPa 0,0 l/m 0,0 km/h (0 Bft) S 187 2 min 0,000 mm 0,0 UV-I 64 W/m -0,6 C 0,2 C 0,0 km/h (0 Bft) 100,00 %
24.04.2017 06:40 0,2 C 94 % 1020,9 hPa 0,0 l/m 0,1 km/h (0 Bft) S 187 2 min 0,000 mm 0,0 UV-I 68 W/m -0,6 C 0,2 C 1,6 km/h (1 Bft) 97,92 %
24.04.2017 06:42 0,2 C 94 % 1020,9 hPa 0,0 l/m 1,2 km/h (1 Bft) S 187 2 min 0,000 mm 0,0 UV-I 71 W/m -0,6 C 0,2 C 1,6 km/h (1 Bft) 90,38 %
24.04.2017 06:44 0,3 C 94 % 1020,8 hPa 0,0 l/m 1,3 km/h (1 Bft) S 187 2 min 0,000 mm 0,0 UV-I 72 W/m -0,5 C 0,3 C 1,6 km/h (1 Bft) 94,00 %
24.04.2017 06:46 0,3 C 94 % 1020,8 hPa 0,0 l/m 0,7 km/h (0 Bft) S 187 2 min 0,000 mm 0,0 UV-I 77 W/m -0,5 C 0,3 C 1,6 km/h (1 Bft) 93,18 %
24.04.2017 06:48 0,3 C 94 % 1020,8 hPa 0,0 l/m 2,0 km/h (1 Bft) S 187 2 min 0,000 mm 0,0 UV-I 79 W/m -0,5 C 0,3 C 3,2 km/h (1 Bft) 94,87 %
24.04.2017 06:50 0,3 C 94 % 1020,8 hPa 0,0 l/m 2,7 km/h (1 Bft) S 187 2 min 0,000 mm 0,0 UV-I 88 W/m -0,5 C 0,3 C 4,8 km/h (1 Bft) 88,14 %
24.04.2017 06:52 0,3 C 94 % 1020,8 hPa 0,0 l/m 3,2 km/h (1 Bft) S 187 2 min 0,000 mm 0,0 UV-I 95 W/m -0,5 C 0,3 C 4,8 km/h (1 Bft) 97,87 %
24.04.2017 06:54 0,3 C 94 % 1020,8 hPa 0,0 l/m 2,7 km/h (1 Bft) S 187 2 min 0,000 mm 0,0 UV-I 103 W/m -0,5 C 0,3 C 4,8 km/h (1 Bft) 97,87 %
24.04.2017 06:56 0,4 C 94 % 1020,8 hPa 0,0 l/m 2,0 km/h (1 Bft) S 187 2 min 0,000 mm 0,0 UV-I 108 W/m -0,5 C 0,4 C 3,2 km/h (1 Bft) 91,43 %
24.04.2017 06:58 0,5 C 94 % 1020,8 hPa 0,0 l/m 1,5 km/h (1 Bft) S 187 2 min 0,000 mm 0,0 UV-I 114 W/m -0,4 C 0,5 C 3,2 km/h (1 Bft) 96,00 %
24.04.2017 07:00 0,6 C 94 % 1020,8 hPa 0,0 l/m 0,6 km/h (0 Bft) S 187 2 min 0,026 mm 0,0 UV-I 120 W/m -0,3 C 0,6 C 3,2 km/h (1 Bft) 94,00 %
24.04.2017 07:02 0,6 C 94 % 1020,8 hPa 0,0 l/m 0,0 km/h (0 Bft) S 187 2 min 0,000 mm 0,0 UV-I 124 W/m -0,3 C 0,6 C 1,6 km/h (1 Bft) 95,74 %
24.04.2017 07:04 0,7 C 94 % 1020,8 hPa 0,0 l/m 0,0 km/h (0 Bft) S 187 2 min 0,000 mm 0,0 UV-I 126 W/m -0,2 C 0,7 C 0,0 km/h (0 Bft) 90,91 %
24.04.2017 07:06 0,8 C 94 % 1020,8 hPa 0,0 l/m 0,1 km/h (0 Bft) S 187 2 min 0,000 mm 0,0 UV-I 132 W/m -0,1 C 0,8 C 1,6 km/h (1 Bft) 93,62 %
24.04.2017 07:08 0,9 C 94 % 1020,8 hPa 0,0 l/m 0,0 km/h (0 Bft) S 187 2 min 0,000 mm 0,0 UV-I 137 W/m 0,0 C 0,9 C 0,0 km/h (0 Bft) 87,80 %
24.04.2017 07:10 1,0 C 94 % 1020,8 hPa 0,0 l/m 0,0 km/h (0 Bft) S 187 2 min 0,000 mm 0,0 UV-I 137 W/m 0,1 C 1,0 C 0,0 km/h (0 Bft) 96,23 %
24.04.2017 07:12 1,0 C 94 % 1020,8 hPa 0,0 l/m 0,0 km/h (0 Bft) S 187 2 min 0,000 mm 0,0 UV-I 139 W/m 0,1 C 1,0 C 0,0 km/h (0 Bft) 91,49 %
24.04.2017 07:14 1,1 C 94 % 1020,8 hPa 0,0 l/m 0,0 km/h (0 Bft) S 187 2 min 0,000 mm 0,0 UV-I 149 W/m 0,2 C 1,1 C 1,6 km/h (1 Bft) 98,04 %
24.04.2017 07:16 1,2 C 94 % 1020,8 hPa 0,0 l/m 0,0 km/h (0 Bft) S 187 2 min 0,000 mm 0,0 UV-I 158 W/m 0,3 C 1,2 C 0,0 km/h (0 Bft) 97,37 %
24.04.2017 07:18 1,3 C 94 % 1020,8 hPa 0,0 l/m 0,0 km/h (0 Bft) S 187 2 min 0,000 mm 0,0 UV-I 165 W/m 0,4 C 1,3 C 0,0 km/h (0 Bft) 94,34 %
24.04.2017 07:20 1,3 C 94 % 1020,8 hPa 0,0 l/m 0,0 km/h (0 Bft) S 187 2 min 0,000 mm 0,0 UV-I 169 W/m 0,4 C 1,3 C 1,6 km/h (1 Bft) 97,87 %
24.04.2017 07:22 1,4 C 94 % 1020,8 hPa 0,0 l/m 0,2 km/h (0 Bft) S 187 2 min 0,000 mm 0,0 UV-I 173 W/m 0,5 C 1,4 C 1,6 km/h (1 Bft) 97,87 %
24.04.2017 07:24 1,6 C 94 % 1020,8 hPa 0,0 l/m 0,7 km/h (0 Bft) S 187 2 min 0,000 mm 0,0 UV-I 177 W/m 0,7 C 1,6 C 3,2 km/h (1 Bft) 95,24 %
24.04.2017 07:26 1,7 C 94 % 1020,7 hPa 0,0 l/m 0,5 km/h (0 Bft) S 187 2 min 0,000 mm 0,0 UV-I 184 W/m 0,8 C 1,7 C 1,6 km/h (1 Bft) 94,34 %
24.04.2017 07:28 1,8 C 94 % 1020,7 hPa 0,0 l/m 1,8 km/h (1 Bft) S 187 2 min 0,000 mm 0,0 UV-I 189 W/m 0,9 C 1,8 C 3,2 km/h (1 Bft) 90,00 %
24.04.2017 07:30 2,0 C 94 % 1020,7 hPa 0,0 l/m 1,8 km/h (1 Bft) S 187 2 min 0,000 mm 0,0 UV-I 196 W/m 1,1 C 2,0 C 3,2 km/h (1 Bft) 91,07 %
24.04.2017 07:32 2,1 C 93 % 1020,7 hPa 0,0 l/m 2,1 km/h (1 Bft) S 187 2 min 0,000 mm 0,0 UV-I 202 W/m 1,1 C 2,1 C 3,2 km/h (1 Bft) 93,18 %
24.04.2017 07:34 2,2 C 93 % 1020,7 hPa 0,0 l/m 3,3 km/h (1 Bft) SO 138 2 min 0,000 mm 0,0 UV-I 209 W/m 1,2 C 2,2 C 4,8 km/h (1 Bft) 96,00 %
24.04.2017 07:36 2,4 C 92 % 1020,7 hPa 0,0 l/m 1,9 km/h (1 Bft) SO 138 2 min 0,000 mm 0,0 UV-I 219 W/m 1,2 C 2,4 C 4,8 km/h (1 Bft) 94,74 %
24.04.2017 07:38 2,6 C 92 % 1020,7 hPa 0,0 l/m 0,3 km/h (0 Bft) SO 138 2 min 0,000 mm 0,0 UV-I 225 W/m 1,4 C 2,6 C 3,2 km/h (1 Bft) 92,45 %
24.04.2017 07:40 2,7 C 92 % 1020,7 hPa 0,0 l/m 1,4 km/h (1 Bft) SO 134 2 min 0,000 mm 0,0 UV-I 232 W/m 1,5 C 2,7 C 3,2 km/h (1 Bft) 96,00 %
24.04.2017 07:42 2,8 C 92 % 1020,6 hPa 0,0 l/m 2,6 km/h (1 Bft) N-NO 13 2 min 0,000 mm 0,0 UV-I 239 W/m 1,6 C 2,8 C 4,8 km/h (1 Bft) 93,62 %
24.04.2017 07:44 2,9 C 91 % 1020,7 hPa 0,0 l/m 5,1 km/h (1 Bft) NO 34 2 min 0,000 mm 0,0 UV-I 243 W/m 1,6 C 2,9 C 8,0 km/h (2 Bft) 92,68 %
24.04.2017 07:46 2,9 C 91 % 1020,7 hPa 0,0 l/m 5,4 km/h (1 Bft) N-NO 25 2 min 0,000 mm 0,0 UV-I 246 W/m 1,6 C 2,9 C 8,0 km/h (2 Bft) 96,00 %
24.04.2017 07:48 3,0 C 91 % 1020,7 hPa 0,0 l/m 5,3 km/h (1 Bft) N-NO 26 2 min 0,000 mm 0,0 UV-I 250 W/m 1,7 C 3,0 C 6,4 km/h (2 Bft) 100,00 %
24.04.2017 07:50 3,0 C 90 % 1020,7 hPa 0,0 l/m 4,0 km/h (1 Bft) NO 39 2 min 0,000 mm 0,0 UV-I 258 W/m 1,5 C 3,0 C 6,4 km/h (2 Bft) 95,16 %
24.04.2017 07:52 3,1 C 90 % 1020,7 hPa 0,0 l/m 3,5 km/h (1 Bft) NO 35 2 min 0,000 mm 0,0 UV-I 264 W/m 1,6 C 3,1 C 6,4 km/h (2 Bft) 97,87 %
24.04.2017 07:54 3,1 C 90 % 1020,8 hPa 0,0 l/m 3,4 km/h (1 Bft) NO 35 2 min 0,000 mm 0,0 UV-I 272 W/m 1,6 C 3,1 C 4,8 km/h (1 Bft) 87,23 %
24.04.2017 07:56 3,2 C 90 % 1020,7 hPa 0,0 l/m 2,8 km/h (1 Bft) NO 35 2 min 0,000 mm 0,1 UV-I 279 W/m 1,7 C 3,2 C 4,8 km/h (1 Bft) 93,62 %
24.04.2017 07:58 3,3 C 90 % 1020,7 hPa 0,0 l/m 4,1 km/h (1 Bft) NO 36 2 min 0,000 mm 0,5 UV-I 282 W/m 1,8 C 3,3 C 6,4 km/h (2 Bft) 97,37 %
24.04.2017 08:00 3,4 C 89 % 1020,7 hPa 0,0 l/m 3,6 km/h (1 Bft) NO 38 2 min 0,000 mm 0,5 UV-I 291 W/m 1,8 C 3,4 C 4,8 km/h (1 Bft) 96,23 %
24.04.2017 08:02 3,5 C 89 % 1020,8 hPa 0,0 l/m 2,5 km/h (1 Bft) NO 38 2 min 0,076 mm 0,5 UV-I 298 W/m 1,9 C 3,5 C 3,2 km/h (1 Bft) 93,62 %
24.04.2017 08:04 3,7 C 89 % 1020,8 hPa 0,0 l/m 1,9 km/h (1 Bft) NO 38 2 min 0,000 mm 0,5 UV-I 302 W/m 2,1 C 3,7 C 4,8 km/h (1 Bft) 92,31 %
24.04.2017 08:06 3,7 C 88 % 1020,7 hPa 0,0 l/m 2,6 km/h (1 Bft) NO 38 2 min 0,000 mm 0,5 UV-I 311 W/m 1,9 C 3,7 C 4,8 km/h (1 Bft) 94,64 %
24.04.2017 08:08 3,8 C 87 % 1020,7 hPa 0,0 l/m 3,0 km/h (1 Bft) NO 38 2 min 0,000 mm 0,6 UV-I 316 W/m 1,8 C 3,8 C 4,8 km/h (1 Bft) 94,23 %
24.04.2017 08:10 3,9 C 87 % 1020,7 hPa 0,0 l/m 2,7 km/h (1 Bft) NO 38 2 min 0,000 mm 0,6 UV-I 321 W/m 1,9 C 3,9 C 4,8 km/h (1 Bft) 94,44 %
24.04.2017 08:12 3,9 C 87 % 1020,7 hPa 0,0 l/m 3,5 km/h (1 Bft) NO 40 2 min 0,000 mm 0,6 UV-I 326 W/m 1,9 C 3,9 C 4,8 km/h (1 Bft) 96,23 %
24.04.2017 08:14 4,1 C 87 % 1020,7 hPa 0,0 l/m 3,5 km/h (1 Bft) NO 49 2 min 0,000 mm 0,6 UV-I 334 W/m 2,1 C 4,1 C 4,8 km/h (1 Bft) 96,00 %
24.04.2017 08:16 4,3 C 87 % 1020,6 hPa 0,0 l/m 3,2 km/h (1 Bft) NO 36 2 min 0,000 mm 0,6 UV-I 341 W/m 2,3 C 4,3 C 6,4 km/h (2 Bft) 94,74 %
24.04.2017 08:18 4,4 C 87 % 1020,6 hPa 0,0 l/m 2,4 km/h (1 Bft) NO 38 2 min 0,000 mm 0,6 UV-I 346 W/m 2,4 C 4,4 C 6,4 km/h (2 Bft) 94,00 %
24.04.2017 08:20 4,4 C 86 % 1020,6 hPa 0,0 l/m 3,2 km/h (1 Bft) NO 38 2 min 0,000 mm 0,7 UV-I 352 W/m 2,3 C 4,4 C 6,4 km/h (2 Bft) 97,56 %
24.04.2017 08:22 4,5 C 85 % 1020,6 hPa 0,0 l/m 4,3 km/h (1 Bft) NO 38 2 min 0,000 mm 0,7 UV-I 358 W/m 2,2 C 4,5 C 6,4 km/h (2 Bft) 91,49 %
24.04.2017 08:24 4,6 C 85 % 1020,6 hPa 0,0 l/m 5,4 km/h (1 Bft) NO 39 2 min 0,000 mm 0,7 UV-I 366 W/m 2,3 C 4,6 C 6,4 km/h (2 Bft) 96,00 %
24.04.2017 08:26 4,6 C 84 % 1020,6 hPa 0,0 l/m 4,0 km/h (1 Bft) NO 39 2 min 0,000 mm 0,7 UV-I 372 W/m 2,1 C 4,6 C 8,0 km/h (2 Bft) 97,87 %
24.04.2017 08:28 4,6 C 84 % 1020,6 hPa 0,0 l/m 4,6 km/h (1 Bft) NO 51 2 min 0,000 mm 0,8 UV-I 375 W/m 2,1 C 4,6 C 6,4 km/h (2 Bft) 98,00 %
24.04.2017 08:30 4,7 C 84 % 1020,6 hPa 0,0 l/m 4,3 km/h (1 Bft) NO 51 2 min 0,000 mm 0,8 UV-I 384 W/m 2,2 C 4,7 C 6,4 km/h (2 Bft) 98,00 %
24.04.2017 08:32 4,8 C 83 % 1020,6 hPa 0,0 l/m 5,3 km/h (1 Bft) NO 51 2 min 0,000 mm 0,8 UV-I 390 W/m 2,2 C 4,8 C 8,0 km/h (2 Bft) 97,73 %
24.04.2017 08:34 4,9 C 83 % 1020,5 hPa 0,0 l/m 5,4 km/h (1 Bft) NO 44 2 min 0,000 mm 0,8 UV-I 395 W/m 2,3 C 4,9 C 8,0 km/h (2 Bft) 97,37 %
24.04.2017 08:36 4,9 C 83 % 1020,5 hPa 0,0 l/m 5,8 km/h (2 Bft) NO 34 2 min 0,000 mm 0,9 UV-I 402 W/m 2,3 C 4,9 C 9,7 km/h (2 Bft) 98,11 %
24.04.2017 08:38 5,0 C 82 % 1020,5 hPa 0,0 l/m 3,0 km/h (1 Bft) NO 36 2 min 0,000 mm 0,9 UV-I 408 W/m 2,2 C 5,0 C 6,4 km/h (2 Bft) 97,87 %
24.04.2017 08:40 5,1 C 82 % 1020,5 hPa 0,0 l/m 2,4 km/h (1 Bft) NO 34 2 min 0,000 mm 0,9 UV-I 412 W/m 2,3 C 5,1 C 6,4 km/h (2 Bft) 100,00 %
24.04.2017 08:42 5,3 C 81 % 1020,4 hPa 0,0 l/m 2,8 km/h (1 Bft) NO 35 2 min 0,000 mm 0,9 UV-I 417 W/m 2,3 C 5,3 C 6,4 km/h (2 Bft) 100,00 %
24.04.2017 08:44 5,4 C 81 % 1020,4 hPa 0,0 l/m 2,9 km/h (1 Bft) NO 45 2 min 0,000 mm 1,0 UV-I 423 W/m 2,4 C 5,4 C 8,0 km/h (2 Bft) 100,00 %
24.04.2017 08:46 5,5 C 82 % 1020,4 hPa 0,0 l/m 4,6 km/h (1 Bft) NO 51 2 min 0,000 mm 1,0 UV-I 429 W/m 2,7 C 5,5 C 6,4 km/h (2 Bft) 98,21 %
24.04.2017 08:48 5,5 C 80 % 1020,4 hPa 0,0 l/m 4,5 km/h (1 Bft) NO 55 2 min 0,000 mm 1,0 UV-I 438 W/m 2,3 C 5,5 C 8,0 km/h (2 Bft) 100,00 %
24.04.2017 08:50 5,5 C 78 % 1020,4 hPa 0,0 l/m 5,5 km/h (1 Bft) NO 55 2 min 0,000 mm 1,0 UV-I 444 W/m 2,0 C 5,5 C 8,0 km/h (2 Bft) 96,23 %
24.04.2017 08:52 5,5 C 76 % 1020,4 hPa 0,0 l/m 6,0 km/h (2 Bft) O-NO 68 2 min 0,000 mm 1,1 UV-I 450 W/m 1,6 C 5,5 C 9,7 km/h (2 Bft) 95,12 %
24.04.2017 08:54 5,5 C 76 % 1020,4 hPa 0,0 l/m 5,5 km/h (1 Bft) NO 53 2 min 0,000 mm 1,1 UV-I 457 W/m 1,6 C 5,5 C 9,7 km/h (2 Bft) 96,23 %
24.04.2017 08:56 5,4 C 76 % 1020,4 hPa 0,0 l/m 5,5 km/h (1 Bft) O-NO 69 2 min 0,000 mm 1,1 UV-I 462 W/m 1,5 C 5,4 C 8,0 km/h (2 Bft) 97,73 %
24.04.2017 08:58 5,4 C 77 % 1020,3 hPa 0,0 l/m 4,5 km/h (1 Bft) NO 55 2 min 0,000 mm 1,2 UV-I 467 W/m 1,7 C 5,4 C 6,4 km/h (2 Bft) 98,11 %
24.04.2017 09:00 5,7 C 78 % 1020,3 hPa 0,0 l/m 3,7 km/h (1 Bft) NO 39 2 min 0,152 mm 1,2 UV-I 471 W/m 2,2 C 5,7 C 9,7 km/h (2 Bft) 97,37 %
24.04.2017 09:02 5,8 C 78 % 1020,2 hPa 0,0 l/m 4,8 km/h (1 Bft) NO 37 2 min 0,000 mm 1,2 UV-I 478 W/m 2,3 C 5,8 C 8,0 km/h (2 Bft) 98,11 %
24.04.2017 09:04 5,9 C 77 % 1020,2 hPa 0,0 l/m 5,7 km/h (1 Bft) NO 51 2 min 0,000 mm 1,2 UV-I 484 W/m 2,2 C 5,9 C 9,7 km/h (2 Bft) 94,74 %
24.04.2017 09:06 6,1 C 78 % 1020,1 hPa 0,0 l/m 5,2 km/h (1 Bft) N-NO 27 2 min 0,000 mm 1,3 UV-I 488 W/m 2,6 C 6,1 C 8,0 km/h (2 Bft) 98,21 %
24.04.2017 09:09 6,2 C 75 % 1020,1 hPa 0,0 l/m 5,5 km/h (1 Bft) O-NO 76 3 min 0,000 mm 1,3 UV-I 498 W/m 2,1 C 6,2 C 9,7 km/h (2 Bft) 92,65 %
24.04.2017 09:10 6,2 C 73 % 1020,0 hPa 0,0 l/m 8,2 km/h (2 Bft) O-NO 57 1 min 0,000 mm 1,3 UV-I 504 W/m 1,7 C 4,7 C 11,3 km/h (2 Bft) 93,10 %
24.04.2017 09:12 6,2 C 71 % 1020,0 hPa 0,0 l/m 6,9 km/h (2 Bft) O-NO 67 2 min 0,000 mm 1,3 UV-I 507 W/m 1,3 C 5,8 C 9,7 km/h (2 Bft) 97,73 %
24.04.2017 09:14 6,2 C 72 % 1020,0 hPa 0,0 l/m 6,2 km/h (2 Bft) O-NO 66 2 min 0,000 mm 1,4 UV-I 513 W/m 1,5 C 6,2 C 8,0 km/h (2 Bft) 98,00 %
24.04.2017 09:16 6,3 C 71 % 1020,0 hPa 0,0 l/m 5,7 km/h (1 Bft) NO 49 2 min 0,000 mm 1,4 UV-I 519 W/m 1,4 C 6,3 C 11,3 km/h (2 Bft) 97,73 %
24.04.2017 09:18 6,4 C 75 % 1020,0 hPa 0,0 l/m 5,3 km/h (1 Bft) N-NO 31 2 min 0,000 mm 1,4 UV-I 524 W/m 2,3 C 6,4 C 9,7 km/h (2 Bft) 91,49 %
24.04.2017 09:20 6,7 C 78 % 1019,9 hPa 0,0 l/m 4,4 km/h (1 Bft) N-NO 25 2 min 0,000 mm 1,5 UV-I 529 W/m 3,1 C 6,7 C 9,7 km/h (2 Bft) 97,73 %
24.04.2017 09:22 6,8 C 76 % 1019,9 hPa 0,0 l/m 2,5 km/h (1 Bft) O-NO 77 2 min 0,000 mm 1,5 UV-I 534 W/m 2,9 C 6,8 C 11,3 km/h (2 Bft) 100,00 %
24.04.2017 09:24 6,8 C 70 % 1019,8 hPa 0,0 l/m 8,6 km/h (2 Bft) O-NO 62 2 min 0,000 mm 1,5 UV-I 540 W/m 1,7 C 5,0 C 12,9 km/h (3 Bft) 96,43 %
24.04.2017 09:26 6,8 C 69 % 1019,9 hPa 0,0 l/m 7,8 km/h (2 Bft) O-NO 65 2 min 0,000 mm 1,6 UV-I 546 W/m 1,5 C 5,6 C 12,9 km/h (3 Bft) 97,87 %
24.04.2017 09:28 6,8 C 68 % 1019,8 hPa 0,0 l/m 9,1 km/h (2 Bft) NO 55 2 min 0,000 mm 1,6 UV-I 551 W/m 1,3 C 4,7 C 14,5 km/h (3 Bft) 100,00 %
24.04.2017 09:30 6,7 C 68 % 1019,9 hPa 0,0 l/m 6,9 km/h (2 Bft) NO 53 2 min 0,000 mm 1,6 UV-I 556 W/m 1,2 C 6,3 C 11,3 km/h (2 Bft) 97,37 %
24.04.2017 09:32 6,8 C 70 % 1019,8 hPa 0,0 l/m 6,2 km/h (2 Bft) O-NO 71 2 min 0,000 mm 1,7 UV-I 562 W/m 1,7 C 6,8 C 9,7 km/h (2 Bft) 97,14 %
24.04.2017 09:34 6,9 C 70 % 1019,8 hPa 0,0 l/m 6,6 km/h (2 Bft) O-NO 73 2 min 0,000 mm 1,7 UV-I 566 W/m 1,8 C 6,8 C 12,9 km/h (3 Bft) 98,39 %
24.04.2017 09:36 6,9 C 68 % 1019,8 hPa 0,0 l/m 5,0 km/h (1 Bft) O-NO 74 2 min 0,000 mm 1,7 UV-I 571 W/m 1,4 C 6,9 C 8,0 km/h (2 Bft) 95,74 %
24.04.2017 09:38 6,9 C 67 % 1019,8 hPa 0,0 l/m 3,9 km/h (1 Bft) O-NO 63 2 min 0,000 mm 1,8 UV-I 574 W/m 1,2 C 6,9 C 8,0 km/h (2 Bft) 97,56 %
24.04.2017 09:40 6,9 C 67 % 1019,8 hPa 0,0 l/m 7,1 km/h (2 Bft) O 94 2 min 0,000 mm 1,8 UV-I 580 W/m 1,2 C 6,3 C 12,9 km/h (3 Bft) 98,00 %
24.04.2017 09:42 7,1 C 69 % 1019,8 hPa 0,0 l/m 6,3 km/h (2 Bft) N-NO 18 2 min 0,000 mm 1,8 UV-I 586 W/m 1,8 C 7,1 C 11,3 km/h (2 Bft) 100,00 %
24.04.2017 09:44 7,3 C 71 % 1019,7 hPa 0,0 l/m 6,1 km/h (2 Bft) NO 34 2 min 0,000 mm 1,9 UV-I 593 W/m 2,4 C 7,3 C 14,5 km/h (3 Bft) 100,00 %
24.04.2017 09:46 7,4 C 68 % 1019,7 hPa 0,0 l/m 9,9 km/h (2 Bft) O 83 2 min 0,000 mm 1,9 UV-I 597 W/m 1,9 C 4,8 C 14,5 km/h (3 Bft) 98,11 %
24.04.2017 09:48 7,3 C 66 % 1019,7 hPa 0,0 l/m 8,1 km/h (2 Bft) O 88 2 min 0,000 mm 1,9 UV-I 600 W/m 1,4 C 5,9 C 12,9 km/h (3 Bft) 100,00 %
24.04.2017 09:50 7,2 C 68 % 1019,7 hPa 0,0 l/m 7,4 km/h (2 Bft) NO 50 2 min 0,000 mm 2,0 UV-I 607 W/m 1,7 C 6,4 C 12,9 km/h (3 Bft) 98,00 %
24.04.2017 09:52 7,3 C 67 % 1019,7 hPa 0,0 l/m 9,0 km/h (2 Bft) NO 51 2 min 0,000 mm 2,0 UV-I 612 W/m 1,6 C 5,3 C 14,5 km/h (3 Bft) 100,00 %
24.04.2017 09:54 7,3 C 64 % 1019,7 hPa 0,0 l/m 10,1 km/h (2 Bft) O-NO 59 2 min 0,000 mm 2,0 UV-I 616 W/m 1,0 C 4,5 C 14,5 km/h (3 Bft) 100,00 %
24.04.2017 09:56 7,5 C 68 % 1019,7 hPa 0,0 l/m 6,2 km/h (2 Bft) NO 43 2 min 0,000 mm 2,1 UV-I 618 W/m 2,0 C 7,5 C 9,7 km/h (2 Bft) 100,00 %
24.04.2017 09:58 7,7 C 69 % 1019,7 hPa 0,0 l/m 9,4 km/h (2 Bft) O-NO 67 2 min 0,000 mm 2,1 UV-I 624 W/m 2,4 C 5,4 C 19,3 km/h (3 Bft) 97,62 %
24.04.2017 10:00 7,6 C 64 % 1019,7 hPa 0,0 l/m 7,2 km/h (2 Bft) NO 38 2 min 0,254 mm 2,1 UV-I 631 W/m 1,2 C 7,0 C 12,9 km/h (3 Bft) 100,00 %
24.04.2017 10:02 7,6 C 64 % 1019,6 hPa 0,0 l/m 6,8 km/h (2 Bft) O-NO 62 2 min 0,000 mm 2,2 UV-I 635 W/m 1,2 C 7,3 C 11,3 km/h (2 Bft) 98,11 %
24.04.2017 10:04 7,6 C 65 % 1019,6 hPa 0,0 l/m 9,1 km/h (2 Bft) O-NO 73 2 min 0,000 mm 2,2 UV-I 642 W/m 1,5 C 5,5 C 14,5 km/h (3 Bft) 97,22 %
24.04.2017 10:06 7,7 C 64 % 1019,6 hPa 0,0 l/m 10,1 km/h (2 Bft) O-NO 61 2 min 0,000 mm 2,2 UV-I 645 W/m 1,3 C 5,0 C 14,5 km/h (3 Bft) 94,00 %
24.04.2017 10:08 7,8 C 63 % 1019,6 hPa 0,0 l/m 10,3 km/h (2 Bft) O-NO 64 2 min 0,000 mm 2,3 UV-I 647 W/m 1,2 C 5,0 C 16,1 km/h (3 Bft) 100,00 %
24.04.2017 10:10 7,8 C 62 % 1019,6 hPa 0,0 l/m 10,7 km/h (2 Bft) O-NO 74 2 min 0,000 mm 2,3 UV-I 653 W/m 1,0 C 4,7 C 16,1 km/h (3 Bft) 94,64 %
24.04.2017 10:12 7,9 C 60 % 1019,5 hPa 0,0 l/m 10,3 km/h (2 Bft) NO 54 2 min 0,000 mm 2,3 UV-I 658 W/m 0,6 C 5,1 C 14,5 km/h (3 Bft) 95,45 %
24.04.2017 10:14 8,1 C 63 % 1019,5 hPa 0,0 l/m 8,1 km/h (2 Bft) N-NO 27 2 min 0,000 mm 2,4 UV-I 663 W/m 1,5 C 6,8 C 14,5 km/h (3 Bft) 100,00 %
24.04.2017 10:16 8,2 C 64 % 1019,5 hPa 0,0 l/m 11,6 km/h (2 Bft) NO 53 2 min 0,000 mm 2,4 UV-I 667 W/m 1,8 C 4,7 C 16,1 km/h (3 Bft) 97,73 %
24.04.2017 10:18 8,3 C 59 % 1019,5 hPa 0,0 l/m 9,4 km/h (2 Bft) NO 55 2 min 0,000 mm 2,4 UV-I 670 W/m 0,8 C 6,1 C 16,1 km/h (3 Bft) 100,00 %
24.04.2017 10:20 8,1 C 60 % 1019,5 hPa 0,0 l/m 8,7 km/h (2 Bft) O 84 2 min 0,000 mm 2,5 UV-I 674 W/m 0,8 C 6,4 C 14,5 km/h (3 Bft) 100,00 %
24.04.2017 10:22 7,9 C 59 % 1019,4 hPa 0,0 l/m 8,1 km/h (2 Bft) O-NO 63 2 min 0,000 mm 2,5 UV-I 676 W/m 0,4 C 6,6 C 16,1 km/h (3 Bft) 97,06 %
24.04.2017 10:24 7,9 C 61 % 1019,5 hPa 0,0 l/m 10,3 km/h (2 Bft) NO 37 2 min 0,000 mm 2,5 UV-I 683 W/m 0,9 C 5,1 C 16,1 km/h (3 Bft) 97,37 %
24.04.2017 10:26 8,1 C 65 % 1019,5 hPa 0,0 l/m 10,1 km/h (2 Bft) O-NO 66 2 min 0,000 mm 2,5 UV-I 686 W/m 1,9 C 5,4 C 16,1 km/h (3 Bft) 98,21 %
24.04.2017 10:28 8,2 C 65 % 1019,4 hPa 0,0 l/m 7,6 km/h (2 Bft) NO 44 2 min 0,000 mm 2,6 UV-I 689 W/m 2,0 C 7,3 C 11,3 km/h (2 Bft) 100,00 %
24.04.2017 10:30 8,3 C 63 % 1019,4 hPa 0,0 l/m 6,8 km/h (2 Bft) N-NO 31 2 min 0,000 mm 2,6 UV-I 692 W/m 1,7 C 8,0 C 9,7 km/h (2 Bft) 98,11 %
24.04.2017 10:32 8,3 C 65 % 1019,4 hPa 0,0 l/m 12,2 km/h (2 Bft) NO 49 2 min 0,000 mm 2,7 UV-I 696 W/m 2,1 C 4,4 C 19,3 km/h (3 Bft) 90,24 %
24.04.2017 10:34 8,3 C 63 % 1019,3 hPa 0,0 l/m 9,0 km/h (2 Bft) O-NO 64 2 min 0,000 mm 2,7 UV-I 702 W/m 1,7 C 6,4 C 16,1 km/h (3 Bft) 98,00 %
24.04.2017 10:36 8,4 C 67 % 1019,3 hPa 0,0 l/m 7,7 km/h (2 Bft) N-NO 15 2 min 0,000 mm 2,7 UV-I 706 W/m 2,6 C 7,4 C 14,5 km/h (3 Bft) 100,00 %
24.04.2017 10:38 8,7 C 68 % 1019,3 hPa 0,0 l/m 10,0 km/h (2 Bft) O-NO 78 2 min 0,000 mm 2,8 UV-I 710 W/m 3,1 C 6,2 C 14,5 km/h (3 Bft) 95,92 %
24.04.2017 10:40 8,8 C 63 % 1019,3 hPa 0,0 l/m 7,6 km/h (2 Bft) O-NO 63 2 min 0,000 mm 2,8 UV-I 714 W/m 2,2 C 7,9 C 14,5 km/h (3 Bft) 95,24 %
24.04.2017 10:42 8,9 C 65 % 1019,2 hPa 0,0 l/m 10,5 km/h (2 Bft) NO 51 2 min 0,000 mm 2,9 UV-I 719 W/m 2,7 C 6,1 C 19,3 km/h (3 Bft) 98,28 %
24.04.2017 10:44 9,0 C 66 % 1019,2 hPa 0,0 l/m 10,5 km/h (2 Bft) O 84 2 min 0,000 mm 2,9 UV-I 721 W/m 3,0 C 6,2 C 17,7 km/h (3 Bft) 95,56 %
24.04.2017 10:46 8,8 C 62 % 1019,1 hPa 0,0 l/m 13,4 km/h (3 Bft) NO 34 2 min 0,000 mm 2,9 UV-I 727 W/m 1,9 C 4,4 C 19,3 km/h (3 Bft) 95,12 %
24.04.2017 10:48 8,8 C 62 % 1019,1 hPa 0,0 l/m 12,2 km/h (2 Bft) NO 40 2 min 0,000 mm 2,9 UV-I 730 W/m 1,9 C 5,0 C 17,7 km/h (3 Bft) 93,18 %
24.04.2017 10:50 8,7 C 63 % 1019,1 hPa 0,0 l/m 10,6 km/h (2 Bft) NO 43 2 min 0,000 mm 3,0 UV-I 731 W/m 2,1 C 5,8 C 14,5 km/h (3 Bft) 92,00 %
24.04.2017 10:52 8,9 C 65 % 1019,1 hPa 0,0 l/m 9,3 km/h (2 Bft) NO 53 2 min 0,000 mm 3,0 UV-I 738 W/m 2,7 C 6,8 C 19,3 km/h (3 Bft) 94,64 %
24.04.2017 10:54 8,8 C 56 % 1019,1 hPa 0,0 l/m 9,5 km/h (2 Bft) NO 38 2 min 0,000 mm 3,1 UV-I 744 W/m 0,5 C 6,6 C 16,1 km/h (3 Bft) 95,12 %
24.04.2017 10:56 9,0 C 63 % 1019,1 hPa 0,0 l/m 10,0 km/h (2 Bft) NO 55 2 min 0,000 mm 3,1 UV-I 746 W/m 2,3 C 6,5 C 14,5 km/h (3 Bft) 90,00 %
24.04.2017 10:58 8,9 C 57 % 1019,1 hPa 0,0 l/m 10,6 km/h (2 Bft) O-NO 75 2 min 0,000 mm 3,1 UV-I 749 W/m 0,9 C 6,0 C 16,1 km/h (3 Bft) 97,56 %
24.04.2017 11:00 8,8 C 57 % 1019,1 hPa 0,0 l/m 10,5 km/h (2 Bft) O-NO 78 2 min 0,331 mm 3,1 UV-I 752 W/m 0,8 C 6,0 C 17,7 km/h (3 Bft) 92,45 %
24.04.2017 11:02 8,8 C 60 % 1019,1 hPa 0,0 l/m 6,1 km/h (2 Bft) O-NO 78 2 min 0,000 mm 3,2 UV-I 755 W/m 1,5 C 8,8 C 11,3 km/h (2 Bft) 96,00 %
24.04.2017 11:04 8,8 C 58 % 1019,0 hPa 0,0 l/m 10,1 km/h (2 Bft) O-NO 65 2 min 0,000 mm 3,2 UV-I 756 W/m 1,0 C 6,2 C 20,9 km/h (4 Bft) 94,29 %
24.04.2017 11:06 8,9 C 60 % 1019,0 hPa 0,0 l/m 9,4 km/h (2 Bft) O 94 2 min 0,000 mm 3,2 UV-I 760 W/m 1,6 C 6,8 C 17,7 km/h (3 Bft) 97,87 %
24.04.2017 11:08 8,8 C 59 % 1019,0 hPa 0,0 l/m 12,4 km/h (3 Bft) O-NO 76 2 min 0,000 mm 3,3 UV-I 765 W/m 1,2 C 4,9 C 17,7 km/h (3 Bft) 95,74 %
24.04.2017 11:10 8,9 C 59 % 1018,9 hPa 0,0 l/m 13,0 km/h (3 Bft) NO 55 2 min 0,000 mm 3,3 UV-I 768 W/m 1,3 C 4,7 C 19,3 km/h (3 Bft) 94,64 %
24.04.2017 11:12 8,8 C 58 % 1018,9 hPa 0,0 l/m 11,7 km/h (2 Bft) O-NO 65 2 min 0,000 mm 3,3 UV-I 772 W/m 1,0 C 5,3 C 17,7 km/h (3 Bft) 97,37 %
24.04.2017 11:14 9,0 C 61 % 1018,9 hPa 0,0 l/m 8,7 km/h (2 Bft) NO 44 2 min 0,000 mm 3,4 UV-I 774 W/m 1,9 C 7,3 C 14,5 km/h (3 Bft) 94,34 %
24.04.2017 11:16 9,1 C 61 % 1018,9 hPa 0,0 l/m 6,0 km/h (2 Bft) NO 34 2 min 0,000 mm 3,4 UV-I 777 W/m 2,0 C 9,1 C 9,7 km/h (2 Bft) 97,73 %
24.04.2017 11:18 9,3 C 59 % 1018,9 hPa 0,0 l/m 8,2 km/h (2 Bft) NO 46 2 min 0,000 mm 3,4 UV-I 779 W/m 1,7 C 8,0 C 16,1 km/h (3 Bft) 96,00 %
24.04.2017 11:20 9,1 C 54 % 1018,9 hPa 0,0 l/m 10,9 km/h (2 Bft) O-NO 67 2 min 0,000 mm 3,5 UV-I 783 W/m 0,3 C 6,1 C 16,1 km/h (3 Bft) 93,62 %
24.04.2017 11:22 9,1 C 56 % 1018,8 hPa 0,0 l/m 7,3 km/h (2 Bft) NO 44 2 min 0,000 mm 3,5 UV-I 788 W/m 0,8 C 8,4 C 12,9 km/h (3 Bft) 97,87 %
24.04.2017 11:24 9,4 C 65 % 1018,8 hPa 0,0 l/m 9,4 km/h (2 Bft) NO 53 2 min 0,000 mm 3,5 UV-I 789 W/m 3,2 C 7,3 C 16,1 km/h (3 Bft) 95,24 %
24.04.2017 11:26 9,6 C 60 % 1018,8 hPa 0,0 l/m 7,7 km/h (2 Bft) N-NO 25 2 min 0,000 mm 3,5 UV-I 792 W/m 2,2 C 8,6 C 12,9 km/h (3 Bft) 93,62 %
24.04.2017 11:28 9,6 C 56 % 1018,7 hPa 0,0 l/m 11,5 km/h (2 Bft) O-NO 72 2 min 0,000 mm 3,6 UV-I 794 W/m 1,3 C 6,3 C 17,7 km/h (3 Bft) 94,00 %
24.04.2017 11:30 9,4 C 55 % 1018,7 hPa 0,0 l/m 11,1 km/h (2 Bft) NO 51 2 min 0,000 mm 3,6 UV-I 797 W/m 0,8 C 6,3 C 16,1 km/h (3 Bft) 95,12 %
24.04.2017 11:32 9,4 C 56 % 1018,7 hPa 0,0 l/m 9,1 km/h (2 Bft) NO 41 2 min 0,000 mm 3,6 UV-I 799 W/m 1,1 C 7,5 C 17,7 km/h (3 Bft) 96,23 %
24.04.2017 11:34 9,6 C 57 % 1018,7 hPa 0,0 l/m 9,6 km/h (2 Bft) NO 41 2 min 0,000 mm 3,6 UV-I 801 W/m 1,5 C 7,4 C 14,5 km/h (3 Bft) 96,00 %
24.04.2017 11:36 9,7 C 58 % 1018,7 hPa 0,0 l/m 9,8 km/h (2 Bft) NO 50 2 min 0,000 mm 3,7 UV-I 804 W/m 1,8 C 7,4 C 12,9 km/h (3 Bft) 91,67 %
24.04.2017 11:38 9,8 C 57 % 1018,6 hPa 0,0 l/m 13,1 km/h (3 Bft) NO 51 2 min 0,000 mm 3,7 UV-I 806 W/m 1,7 C 5,7 C 17,7 km/h (3 Bft) 97,47 %
24.04.2017 11:40 9,7 C 53 % 1018,6 hPa 0,0 l/m 9,4 km/h (2 Bft) NO 34 2 min 0,000 mm 3,7 UV-I 808 W/m 0,6 C 7,6 C 16,1 km/h (3 Bft) 89,47 %
24.04.2017 11:42 9,8 C 61 % 1018,6 hPa 0,0 l/m 7,4 km/h (2 Bft) O-NO 61 2 min 0,000 mm 3,8 UV-I 810 W/m 2,6 C 9,1 C 14,5 km/h (3 Bft) 98,11 %
24.04.2017 11:44 9,8 C 56 % 1018,6 hPa 0,0 l/m 7,2 km/h (2 Bft) NO 43 2 min 0,000 mm 3,8 UV-I 813 W/m 1,4 C 9,2 C 16,1 km/h (3 Bft) 93,18 %
24.04.2017 11:46 9,8 C 57 % 1018,5 hPa 0,0 l/m 8,9 km/h (2 Bft) NO 38 2 min 0,000 mm 3,8 UV-I 816 W/m 1,7 C 8,0 C 16,1 km/h (3 Bft) 98,00 %
24.04.2017 11:48 9,9 C 59 % 1018,6 hPa 0,0 l/m 10,2 km/h (2 Bft) N-NO 33 2 min 0,000 mm 3,8 UV-I 818 W/m 2,3 C 7,4 C 16,1 km/h (3 Bft) 96,00 %
24.04.2017 11:50 9,8 C 56 % 1018,5 hPa 0,0 l/m 5,3 km/h (1 Bft) NO 44 2 min 0,000 mm 3,9 UV-I 821 W/m 1,4 C 9,8 C 8,0 km/h (2 Bft) 96,00 %
24.04.2017 11:52 9,8 C 56 % 1018,5 hPa 0,0 l/m 5,3 km/h (1 Bft) N-NO 17 2 min 0,000 mm 3,9 UV-I 820 W/m 1,4 C 9,8 C 8,0 km/h (2 Bft) 97,73 %
24.04.2017 11:54 10,2 C 62 % 1018,4 hPa 0,0 l/m 8,2 km/h (2 Bft) NO 41 2 min 0,000 mm 3,9 UV-I 823 W/m 3,3 C 8,9 C 12,9 km/h (3 Bft) 97,56 %
24.04.2017 11:56 10,3 C 58 % 1018,4 hPa 0,0 l/m 9,3 km/h (2 Bft) O-NO 74 2 min 0,000 mm 3,9 UV-I 827 W/m 2,4 C 8,3 C 16,1 km/h (3 Bft) 94,34 %
24.04.2017 11:58 9,9 C 53 % 1018,4 hPa 0,0 l/m 8,4 km/h (2 Bft) NO 54 2 min 0,000 mm 4,0 UV-I 830 W/m 0,8 C 8,5 C 14,5 km/h (3 Bft) 94,87 %
24.04.2017 12:00 9,8 C 57 % 1018,4 hPa 0,0 l/m 6,1 km/h (2 Bft) NO 44 2 min 0,406 mm 4,0 UV-I 831 W/m 1,7 C 9,8 C 11,3 km/h (2 Bft) 98,18 %
24.04.2017 12:02 10,3 C 63 % 1018,4 hPa 0,0 l/m 10,2 km/h (2 Bft) NO 54 2 min 0,000 mm 4,0 UV-I 833 W/m 3,6 C 7,8 C 16,1 km/h (3 Bft) 97,62 %
24.04.2017 12:04 10,2 C 56 % 1018,3 hPa 0,0 l/m 6,5 km/h (2 Bft) N-NO 22 2 min 0,000 mm 4,0 UV-I 834 W/m 1,8 C 10,2 C 11,3 km/h (2 Bft) 95,45 %
24.04.2017 12:06 10,1 C 57 % 1018,2 hPa 0,0 l/m 2,8 km/h (1 Bft) N-NO 12 2 min 0,000 mm 4,0 UV-I 835 W/m 2,0 C 10,1 C 8,0 km/h (2 Bft) 90,91 %
24.04.2017 12:08 10,1 C 57 % 1018,2 hPa 0,0 l/m 5,9 km/h (2 Bft) NO 45 2 min 0,000 mm 4,1 UV-I 836 W/m 2,0 C 10,1 C 19,3 km/h (3 Bft) 91,53 %
24.04.2017 12:10 10,2 C 59 % 1018,2 hPa 0,0 l/m 16,7 km/h (3 Bft) O-NO 67 2 min 0,000 mm 4,1 UV-I 837 W/m 2,6 C 4,7 C 22,5 km/h (4 Bft) 94,74 %
24.04.2017 12:12 10,1 C 58 % 1018,2 hPa 0,0 l/m 7,8 km/h (2 Bft) NO 53 2 min 0,000 mm 4,1 UV-I 838 W/m 2,2 C 9,1 C 14,5 km/h (3 Bft) 88,68 %
24.04.2017 12:14 10,1 C 55 % 1018,2 hPa 0,0 l/m 9,4 km/h (2 Bft) O 90 2 min 0,000 mm 4,1 UV-I 838 W/m 1,5 C 8,1 C 14,5 km/h (3 Bft) 97,87 %
24.04.2017 12:16 9,8 C 54 % 1018,1 hPa 0,0 l/m 2,0 km/h (1 Bft) W-NW 284 2 min 0,000 mm 4,1 UV-I 840 W/m 0,9 C 9,8 C 4,8 km/h (1 Bft) 94,00 %
24.04.2017 12:18 9,8 C 58 % 1018,1 hPa 0,0 l/m 5,2 km/h (1 Bft) O-NO 67 2 min 0,000 mm 4,2 UV-I 839 W/m 1,9 C 9,8 C 14,5 km/h (3 Bft) 93,62 %
24.04.2017 12:20 10,1 C 57 % 1018,0 hPa 0,0 l/m 6,8 km/h (2 Bft) NO 49 2 min 0,000 mm 4,2 UV-I 842 W/m 2,0 C 9,8 C 11,3 km/h (2 Bft) 92,11 %
24.04.2017 12:22 10,3 C 58 % 1018,0 hPa 0,0 l/m 10,5 km/h (2 Bft) N-NO 29 2 min 0,000 mm 4,2 UV-I 845 W/m 2,4 C 7,6 C 20,9 km/h (4 Bft) 94,64 %
24.04.2017 12:24 10,3 C 54 % 1017,9 hPa 0,0 l/m 9,0 km/h (2 Bft) O-NO 62 2 min 0,000 mm 4,2 UV-I 843 W/m 1,4 C 8,5 C 14,5 km/h (3 Bft) 83,72 %
24.04.2017 12:26 10,4 C 59 % 1017,9 hPa 0,0 l/m 8,0 km/h (2 Bft) O-NO 58 2 min 0,000 mm 4,2 UV-I 843 W/m 2,7 C 9,3 C 16,1 km/h (3 Bft) 90,24 %
24.04.2017 12:28 10,4 C 62 % 1017,9 hPa 0,0 l/m 3,5 km/h (1 Bft) N-NO 13 2 min 0,000 mm 4,2 UV-I 851 W/m 3,4 C 10,4 C 6,4 km/h (2 Bft) 92,45 %
24.04.2017 12:30 10,5 C 58 % 1017,8 hPa 0,0 l/m 2,2 km/h (1 Bft) N-NO 19 2 min 0,000 mm 4,3 UV-I 854 W/m 2,6 C 10,5 C 12,9 km/h (3 Bft) 88,64 %
24.04.2017 12:32 10,6 C 59 % 1017,7 hPa 0,0 l/m 7,6 km/h (2 Bft) N-NO 24 2 min 0,000 mm 4,3 UV-I 854 W/m 2,9 C 9,8 C 16,1 km/h (3 Bft) 94,00 %
24.04.2017 12:34 10,7 C 56 % 1017,6 hPa 0,0 l/m 9,8 km/h (2 Bft) NO 55 2 min 0,000 mm 4,3 UV-I 854 W/m 2,3 C 8,5 C 16,1 km/h (3 Bft) 91,49 %
24.04.2017 12:36 10,6 C 55 % 1017,6 hPa 0,0 l/m 5,5 km/h (1 Bft) N-NO 17 2 min 0,000 mm 4,3 UV-I 854 W/m 1,9 C 10,6 C 8,0 km/h (2 Bft) 89,74 %
24.04.2017 12:38 11,0 C 62 % 1017,6 hPa 0,0 l/m 6,8 km/h (2 Bft) N-NO 22 2 min 0,000 mm 4,3 UV-I 857 W/m 4,0 C 10,7 C 11,3 km/h (2 Bft) 92,31 %
24.04.2017 12:40 11,1 C 60 % 1017,5 hPa 0,0 l/m 9,2 km/h (2 Bft) O 82 2 min 0,000 mm 4,3 UV-I 858 W/m 3,6 C 9,3 C 16,1 km/h (3 Bft) 92,86 %
24.04.2017 12:42 10,9 C 58 % 1017,4 hPa 0,0 l/m 4,9 km/h (1 Bft) O-NO 70 2 min 0,000 mm 4,3 UV-I 856 W/m 3,0 C 10,9 C 9,7 km/h (2 Bft) 96,43 %
24.04.2017 12:44 10,9 C 59 % 1017,4 hPa 0,0 l/m 7,9 km/h (2 Bft) NO 46 2 min 0,000 mm 4,3 UV-I 855 W/m 3,2 C 9,9 C 12,9 km/h (3 Bft) 92,68 %
24.04.2017 12:46 11,1 C 59 % 1017,4 hPa 0,0 l/m 7,4 km/h (2 Bft) NO 48 2 min 0,000 mm 4,3 UV-I 857 W/m 3,4 C 10,4 C 11,3 km/h (2 Bft) 93,62 %
24.04.2017 12:48 11,3 C 61 % 1017,3 hPa 0,0 l/m 13,3 km/h (3 Bft) O-NO 58 2 min 0,000 mm 4,3 UV-I 859 W/m 4,1 C 7,4 C 19,3 km/h (3 Bft) 94,34 %
24.04.2017 12:50 11,2 C 61 % 1017,2 hPa 0,0 l/m 10,0 km/h (2 Bft) NO 56 2 min 0,000 mm 4,3 UV-I 857 W/m 4,0 C 8,9 C 16,1 km/h (3 Bft) 92,68 %
24.04.2017 12:52 11,1 C 57 % 1017,2 hPa 0,0 l/m 7,9 km/h (2 Bft) NO 42 2 min 0,000 mm 4,3 UV-I 857 W/m 2,9 C 10,1 C 14,5 km/h (3 Bft) 96,23 %
24.04.2017 12:54 11,2 C 60 % 1017,3 hPa 0,0 l/m 10,1 km/h (2 Bft) O-NO 63 2 min 0,000 mm 4,3 UV-I 856 W/m 3,7 C 8,9 C 14,5 km/h (3 Bft) 97,73 %
24.04.2017 12:56 11,3 C 58 % 1017,2 hPa 0,0 l/m 10,6 km/h (2 Bft) NO 37 2 min 0,000 mm 4,3 UV-I 857 W/m 3,3 C 8,7 C 17,7 km/h (3 Bft) 92,31 %
24.04.2017 12:58 11,4 C 62 % 1017,2 hPa 0,0 l/m 4,4 km/h (1 Bft) N 11 2 min 0,000 mm 4,3 UV-I 855 W/m 4,4 C 11,4 C 11,3 km/h (2 Bft) 91,53 %
24.04.2017 13:00 11,3 C 58 % 1017,2 hPa 0,0 l/m 2,8 km/h (1 Bft) N-NO 15 2 min 0,000 mm 4,3 UV-I 854 W/m 3,3 C 11,3 C 9,7 km/h (2 Bft) 97,87 %
24.04.2017 13:02 11,3 C 58 % 1017,1 hPa 0,0 l/m 3,3 km/h (1 Bft) W 269 2 min 0,432 mm 4,3 UV-I 853 W/m 3,3 C 11,3 C 8,0 km/h (2 Bft) 93,88 %
24.04.2017 13:04 11,4 C 65 % 1017,1 hPa 0,0 l/m 4,6 km/h (1 Bft) O-NO 67 2 min 0,000 mm 4,3 UV-I 849 W/m 5,1 C 11,4 C 14,5 km/h (3 Bft) 92,86 %
24.04.2017 13:06 11,3 C 57 % 1017,1 hPa 0,0 l/m 6,2 km/h (2 Bft) NO 54 2 min 0,000 mm 4,4 UV-I 853 W/m 3,1 C 11,3 C 9,7 km/h (2 Bft) 96,88 %
24.04.2017 13:08 11,1 C 54 % 1017,0 hPa 0,0 l/m 4,8 km/h (1 Bft) O-NO 67 2 min 0,000 mm 4,4 UV-I 852 W/m 2,2 C 11,1 C 8,0 km/h (2 Bft) 96,61 %
24.04.2017 13:10 11,0 C 60 % 1017,0 hPa 0,0 l/m 4,7 km/h (1 Bft) N-NO 16 2 min 0,000 mm 4,4 UV-I 858 W/m 3,5 C 11,0 C 12,9 km/h (3 Bft) 97,37 %
24.04.2017 13:12 11,1 C 59 % 1017,0 hPa 0,0 l/m 4,5 km/h (1 Bft) N 349 2 min 0,000 mm 4,4 UV-I 857 W/m 3,4 C 11,1 C 9,7 km/h (2 Bft) 88,68 %
24.04.2017 13:14 11,2 C 62 % 1016,9 hPa 0,0 l/m 6,7 km/h (2 Bft) O-NO 61 2 min 0,000 mm 4,4 UV-I 852 W/m 4,2 C 11,0 C 14,5 km/h (3 Bft) 97,87 %
24.04.2017 13:16 11,4 C 59 % 1016,8 hPa 0,0 l/m 7,8 km/h (2 Bft) NO 42 2 min 0,000 mm 4,4 UV-I 855 W/m 3,7 C 10,5 C 14,5 km/h (3 Bft) 97,62 %
24.04.2017 13:18 11,3 C 56 % 1016,8 hPa 0,0 l/m 2,7 km/h (1 Bft) NW 314 2 min 0,000 mm 4,4 UV-I 853 W/m 2,8 C 11,3 C 6,4 km/h (2 Bft) 95,74 %
24.04.2017 13:20 11,3 C 60 % 1016,8 hPa 0,0 l/m 0,8 km/h (0 Bft) N-NW 340 2 min 0,000 mm 4,4 UV-I 854 W/m 3,8 C 11,3 C 1,6 km/h (1 Bft) 87,27 %
24.04.2017 13:22 11,1 C 55 % 1016,7 hPa 0,0 l/m 1,5 km/h (1 Bft) NO 43 2 min 0,000 mm 4,4 UV-I 854 W/m 2,4 C 11,1 C 8,0 km/h (2 Bft) 92,31 %
24.04.2017 13:24 11,2 C 57 % 1016,7 hPa 0,0 l/m 9,4 km/h (2 Bft) O-NO 78 2 min 0,000 mm 4,4 UV-I 851 W/m 3,0 C 9,3 C 16,1 km/h (3 Bft) 96,23 %
24.04.2017 13:26 11,4 C 58 % 1016,7 hPa 0,0 l/m 4,1 km/h (1 Bft) NO 36 2 min 0,000 mm 4,3 UV-I 843 W/m 3,4 C 11,4 C 8,0 km/h (2 Bft) 97,56 %
24.04.2017 13:28 11,4 C 58 % 1016,7 hPa 0,0 l/m 1,1 km/h (1 Bft) N-NO 23 2 min 0,000 mm 4,3 UV-I 843 W/m 3,4 C 11,4 C 3,2 km/h (1 Bft) 95,74 %
24.04.2017 13:30 11,7 C 61 % 1016,6 hPa 0,0 l/m 2,5 km/h (1 Bft) N 360 2 min 0,000 mm 4,4 UV-I 842 W/m 4,4 C 11,7 C 6,4 km/h (2 Bft) 98,00 %
24.04.2017 13:32 11,8 C 61 % 1016,6 hPa 0,0 l/m 4,8 km/h (1 Bft) NO 45 2 min 0,000 mm 4,4 UV-I 845 W/m 4,5 C 11,8 C 8,0 km/h (2 Bft) 94,00 %
24.04.2017 13:34 11,8 C 57 % 1016,6 hPa 0,0 l/m 2,6 km/h (1 Bft) N 5 2 min 0,000 mm 4,4 UV-I 846 W/m 3,6 C 11,8 C 6,4 km/h (2 Bft) 94,74 %
24.04.2017 13:36 11,7 C 57 % 1016,6 hPa 0,0 l/m 2,8 km/h (1 Bft) N-NO 26 2 min 0,000 mm 4,4 UV-I 844 W/m 3,5 C 11,7 C 8,0 km/h (2 Bft) 94,00 %
24.04.2017 13:38 11,5 C 55 % 1016,6 hPa 0,0 l/m 2,6 km/h (1 Bft) N-NW 342 2 min 0,000 mm 4,4 UV-I 844 W/m 2,8 C 11,5 C 4,8 km/h (1 Bft) 96,00 %
24.04.2017 13:40 11,5 C 60 % 1016,5 hPa 0,0 l/m 1,6 km/h (1 Bft) N-NW 340 2 min 0,000 mm 4,4 UV-I 843 W/m 4,0 C 11,5 C 4,8 km/h (1 Bft) 89,47 %
24.04.2017 13:42 11,7 C 56 % 1016,5 hPa 0,0 l/m 0,8 km/h (0 Bft) N-NW 340 2 min 0,000 mm 4,5 UV-I 844 W/m 3,2 C 11,7 C 3,2 km/h (1 Bft) 94,64 %
24.04.2017 13:44 11,9 C 58 % 1016,4 hPa 0,0 l/m 4,5 km/h (1 Bft) NO 38 2 min 0,000 mm 4,6 UV-I 842 W/m 3,9 C 11,9 C 6,4 km/h (2 Bft) 95,12 %
24.04.2017 13:46 12,0 C 58 % 1016,4 hPa 0,0 l/m 9,3 km/h (2 Bft) O-SO 117 2 min 0,000 mm 4,5 UV-I 842 W/m 4,0 C 10,2 C 12,9 km/h (3 Bft) 97,87 %
24.04.2017 13:48 11,8 C 55 % 1016,3 hPa 0,0 l/m 2,7 km/h (1 Bft) S-SO 149 2 min 0,000 mm 4,5 UV-I 845 W/m 3,1 C 11,8 C 6,4 km/h (2 Bft) 90,57 %
24.04.2017 13:50 11,8 C 56 % 1016,3 hPa 0,0 l/m 7,2 km/h (2 Bft) O 86 2 min 0,000 mm 4,5 UV-I 841 W/m 3,3 C 11,3 C 12,9 km/h (3 Bft) 98,00 %
24.04.2017 13:52 11,6 C 54 % 1016,4 hPa 0,0 l/m 4,2 km/h (1 Bft) O-NO 59 2 min 0,000 mm 4,4 UV-I 838 W/m 2,6 C 11,6 C 6,4 km/h (2 Bft) 97,56 %
24.04.2017 13:54 11,5 C 55 % 1016,3 hPa 0,0 l/m 1,3 km/h (1 Bft) NO 56 2 min 0,000 mm 4,4 UV-I 836 W/m 2,8 C 11,5 C 3,2 km/h (1 Bft) 94,34 %
24.04.2017 13:56 11,8 C 62 % 1016,3 hPa 0,0 l/m 1,5 km/h (1 Bft) NO 56 2 min 0,000 mm 4,3 UV-I 835 W/m 4,8 C 11,8 C 3,2 km/h (1 Bft) 97,62 %
24.04.2017 13:58 12,1 C 61 % 1016,2 hPa 0,0 l/m 4,9 km/h (1 Bft) O-NO 67 2 min 0,000 mm 4,3 UV-I 833 W/m 4,8 C 12,1 C 8,0 km/h (2 Bft) 96,15 %
24.04.2017 14:00 12,3 C 59 % 1016,2 hPa 0,0 l/m 4,9 km/h (1 Bft) NO 47 2 min 0,432 mm 4,3 UV-I 829 W/m 4,5 C 12,3 C 8,0 km/h (2 Bft) 94,44 %
24.04.2017 14:02 12,4 C 60 % 1016,2 hPa 0,0 l/m 4,6 km/h (1 Bft) NO 44 2 min 0,000 mm 4,3 UV-I 827 W/m 4,9 C 12,4 C 9,7 km/h (2 Bft) 96,43 %
24.04.2017 14:04 12,4 C 57 % 1016,2 hPa 0,0 l/m 7,1 km/h (2 Bft) N-NO 30 2 min 0,000 mm 4,3 UV-I 828 W/m 4,1 C 11,9 C 9,7 km/h (2 Bft) 94,74 %
24.04.2017 14:06 12,3 C 58 % 1016,1 hPa 0,0 l/m 6,7 km/h (2 Bft) NO 42 2 min 0,000 mm 4,2 UV-I 825 W/m 4,3 C 12,1 C 12,9 km/h (3 Bft) 94,00 %
24.04.2017 14:08 12,2 C 56 % 1016,1 hPa 0,0 l/m 2,0 km/h (1 Bft) N-NO 31 2 min 0,000 mm 4,2 UV-I 820 W/m 3,7 C 12,2 C 4,8 km/h (1 Bft) 97,37 %
24.04.2017 14:10 12,2 C 55 % 1016,0 hPa 0,0 l/m 7,4 km/h (2 Bft) O-NO 74 2 min 0,000 mm 4,1 UV-I 817 W/m 3,4 C 11,5 C 12,9 km/h (3 Bft) 91,49 %
24.04.2017 14:12 12,2 C 56 % 1016,0 hPa 0,0 l/m 7,4 km/h (2 Bft) O-NO 62 2 min 0,000 mm 4,1 UV-I 815 W/m 3,7 C 11,5 C 11,3 km/h (2 Bft) 96,23 %
24.04.2017 14:14 12,4 C 60 % 1016,0 hPa 0,0 l/m 8,9 km/h (2 Bft) O-NO 64 2 min 0,000 mm 4,0 UV-I 812 W/m 4,9 C 10,8 C 12,9 km/h (3 Bft) 94,34 %
24.04.2017 14:16 12,6 C 55 % 1016,0 hPa 0,0 l/m 7,2 km/h (2 Bft) O-NO 60 2 min 0,000 mm 4,0 UV-I 811 W/m 3,8 C 12,1 C 12,9 km/h (3 Bft) 93,18 %
24.04.2017 14:18 12,8 C 55 % 1015,9 hPa 0,0 l/m 5,7 km/h (1 Bft) N-NO 19 2 min 0,000 mm 4,0 UV-I 807 W/m 4,0 C 12,8 C 8,0 km/h (2 Bft) 89,66 %
24.04.2017 14:20 12,8 C 55 % 1015,9 hPa 0,0 l/m 5,0 km/h (1 Bft) N-NO 31 2 min 0,000 mm 4,0 UV-I 806 W/m 4,0 C 12,8 C 11,3 km/h (2 Bft) 92,96 %
24.04.2017 14:22 12,6 C 54 % 1015,9 hPa 0,0 l/m 1,3 km/h (1 Bft) N-NO 31 2 min 0,000 mm 3,9 UV-I 801 W/m 3,5 C 12,6 C 3,2 km/h (1 Bft) 97,37 %
24.04.2017 14:24 12,5 C 58 % 1015,8 hPa 0,0 l/m 1,0 km/h (0 Bft) N-NW 334 2 min 0,000 mm 3,9 UV-I 799 W/m 4,5 C 12,5 C 3,2 km/h (1 Bft) 92,00 %
24.04.2017 14:26 12,6 C 57 % 1015,8 hPa 0,0 l/m 2,0 km/h (1 Bft) NO 41 2 min 0,000 mm 3,9 UV-I 798 W/m 4,3 C 12,6 C 6,4 km/h (2 Bft) 92,00 %
24.04.2017 14:28 12,6 C 56 % 1015,7 hPa 0,0 l/m 3,6 km/h (1 Bft) O-SO 105 2 min 0,000 mm 3,9 UV-I 794 W/m 4,1 C 12,6 C 6,4 km/h (2 Bft) 94,74 %
24.04.2017 14:30 12,6 C 53 % 1015,7 hPa 0,0 l/m 3,7 km/h (1 Bft) O-NO 66 2 min 0,000 mm 3,9 UV-I 791 W/m 3,3 C 12,6 C 6,4 km/h (2 Bft) 88,68 %
24.04.2017 14:32 12,8 C 60 % 1015,7 hPa 0,0 l/m 4,1 km/h (1 Bft) NO 34 2 min 0,000 mm 3,9 UV-I 789 W/m 5,2 C 12,8 C 6,4 km/h (2 Bft) 93,18 %
24.04.2017 14:34 13,1 C 59 % 1015,7 hPa 0,0 l/m 3,5 km/h (1 Bft) NO 51 2 min 0,000 mm 3,9 UV-I 788 W/m 5,3 C 13,1 C 6,4 km/h (2 Bft) 96,00 %
24.04.2017 14:36 13,2 C 53 % 1015,6 hPa 0,0 l/m 6,1 km/h (2 Bft) O-NO 62 2 min 0,000 mm 3,8 UV-I 785 W/m 3,8 C 13,2 C 8,0 km/h (2 Bft) 92,86 %
24.04.2017 14:38 13,0 C 53 % 1015,6 hPa 0,0 l/m 3,1 km/h (1 Bft) NO 42 2 min 0,000 mm 3,8 UV-I 781 W/m 3,6 C 13,0 C 4,8 km/h (1 Bft) 98,18 %
24.04.2017 14:40 13,1 C 57 % 1015,6 hPa 0,0 l/m 3,1 km/h (1 Bft) N-NO 16 2 min 0,000 mm 3,8 UV-I 779 W/m 4,8 C 13,1 C 6,4 km/h (2 Bft) 97,44 %
24.04.2017 14:42 13,1 C 56 % 1015,6 hPa 0,0 l/m 4,2 km/h (1 Bft) N 9 2 min 0,000 mm 3,8 UV-I 778 W/m 4,5 C 13,1 C 8,0 km/h (2 Bft) 96,23 %
24.04.2017 14:44 13,0 C 56 % 1015,5 hPa 0,0 l/m 2,4 km/h (1 Bft) N-NO 22 2 min 0,000 mm 3,7 UV-I 773 W/m 4,4 C 13,0 C 6,4 km/h (2 Bft) 96,00 %
24.04.2017 14:46 13,0 C 56 % 1015,5 hPa 0,0 l/m 4,7 km/h (1 Bft) NO 35 2 min 0,000 mm 3,7 UV-I 770 W/m 4,4 C 13,0 C 9,7 km/h (2 Bft) 97,14 %
24.04.2017 14:48 12,9 C 56 % 1015,4 hPa 0,0 l/m 3,1 km/h (1 Bft) NO 53 2 min 0,000 mm 3,7 UV-I 768 W/m 4,3 C 12,9 C 6,4 km/h (2 Bft) 96,23 %
24.04.2017 14:50 13,2 C 56 % 1015,3 hPa 0,0 l/m 4,3 km/h (1 Bft) NO 44 2 min 0,000 mm 3,7 UV-I 763 W/m 4,6 C 13,2 C 8,0 km/h (2 Bft) 94,34 %
24.04.2017 14:52 13,3 C 57 % 1015,3 hPa 0,0 l/m 3,7 km/h (1 Bft) NW 323 2 min 0,000 mm 3,6 UV-I 760 W/m 5,0 C 13,3 C 11,3 km/h (2 Bft) 97,56 %
24.04.2017 14:54 13,3 C 57 % 1015,3 hPa 0,0 l/m 4,9 km/h (1 Bft) NO 46 2 min 0,000 mm 3,6 UV-I 757 W/m 5,0 C 13,3 C 9,7 km/h (2 Bft) 97,87 %
24.04.2017 14:56 13,4 C 62 % 1015,3 hPa 0,0 l/m 4,4 km/h (1 Bft) N-NO 13 2 min 0,000 mm 3,5 UV-I 754 W/m 6,3 C 13,4 C 6,4 km/h (2 Bft) 97,73 %
24.04.2017 14:58 13,2 C 55 % 1015,3 hPa 0,0 l/m 5,3 km/h (1 Bft) NO 39 2 min 0,000 mm 3,5 UV-I 751 W/m 4,4 C 13,2 C 8,0 km/h (2 Bft) 98,00 %
24.04.2017 15:00 13,2 C 52 % 1015,3 hPa 0,0 l/m 2,9 km/h (1 Bft) N-NW 327 2 min 0,406 mm 3,4 UV-I 748 W/m 3,6 C 13,2 C 4,8 km/h (1 Bft) 95,74 %
24.04.2017 15:02 13,2 C 53 % 1015,2 hPa 0,0 l/m 3,4 km/h (1 Bft) NW 317 2 min 0,000 mm 3,4 UV-I 742 W/m 3,8 C 13,2 C 6,4 km/h (2 Bft) 97,87 %
24.04.2017 15:04 13,2 C 54 % 1015,1 hPa 0,0 l/m 3,6 km/h (1 Bft) W-NW 300 2 min 0,000 mm 3,4 UV-I 738 W/m 4,1 C 13,2 C 8,0 km/h (2 Bft) 95,74 %
24.04.2017 15:06 13,2 C 51 % 1015,1 hPa 0,0 l/m 3,8 km/h (1 Bft) W-NW 297 2 min 0,000 mm 3,4 UV-I 737 W/m 3,3 C 13,2 C 6,4 km/h (2 Bft) 100,00 %
24.04.2017 15:08 13,2 C 53 % 1015,1 hPa 0,0 l/m 2,3 km/h (1 Bft) NW 311 2 min 0,000 mm 3,3 UV-I 734 W/m 3,8 C 13,2 C 4,8 km/h (1 Bft) 94,34 %
24.04.2017 15:10 13,4 C 55 % 1015,0 hPa 0,0 l/m 1,8 km/h (1 Bft) NW 311 2 min 0,000 mm 3,3 UV-I 731 W/m 4,5 C 13,4 C 4,8 km/h (1 Bft) 95,12 %
24.04.2017 15:12 13,4 C 53 % 1014,9 hPa 0,0 l/m 3,3 km/h (1 Bft) N-NO 22 2 min 0,000 mm 3,3 UV-I 728 W/m 4,0 C 13,4 C 6,4 km/h (2 Bft) 96,08 %
24.04.2017 15:14 13,4 C 54 % 1014,9 hPa 0,0 l/m 5,4 km/h (1 Bft) NO 52 2 min 0,000 mm 3,3 UV-I 723 W/m 4,3 C 13,4 C 8,0 km/h (2 Bft) 97,96 %
24.04.2017 15:16 13,4 C 56 % 1014,9 hPa 0,0 l/m 6,2 km/h (2 Bft) NO 40 2 min 0,000 mm 3,2 UV-I 719 W/m 4,8 C 13,4 C 8,0 km/h (2 Bft) 96,00 %
24.04.2017 15:18 13,5 C 55 % 1014,8 hPa 0,0 l/m 3,4 km/h (1 Bft) NO 40 2 min 0,000 mm 3,2 UV-I 715 W/m 4,6 C 13,5 C 6,4 km/h (2 Bft) 97,22 %
24.04.2017 15:20 13,4 C 53 % 1014,7 hPa 0,0 l/m 2,6 km/h (1 Bft) O-SO 109 2 min 0,000 mm 3,1 UV-I 712 W/m 4,0 C 13,4 C 6,4 km/h (2 Bft) 94,34 %
24.04.2017 15:22 13,8 C 53 % 1014,8 hPa 0,0 l/m 3,5 km/h (1 Bft) O-NO 65 2 min 0,000 mm 3,1 UV-I 708 W/m 4,4 C 13,8 C 6,4 km/h (2 Bft) 98,11 %
24.04.2017 15:24 13,9 C 53 % 1014,7 hPa 0,0 l/m 5,5 km/h (1 Bft) NO 49 2 min 0,000 mm 3,1 UV-I 705 W/m 4,5 C 13,9 C 8,0 km/h (2 Bft) 95,12 %
24.04.2017 15:26 13,8 C 54 % 1014,7 hPa 0,0 l/m 2,6 km/h (1 Bft) O-NO 57 2 min 0,000 mm 3,0 UV-I 698 W/m 4,7 C 13,8 C 4,8 km/h (1 Bft) 94,00 %
24.04.2017 15:28 13,8 C 52 % 1014,6 hPa 0,0 l/m 4,2 km/h (1 Bft) O-NO 63 2 min 0,000 mm 3,0 UV-I 695 W/m 4,1 C 13,8 C 8,0 km/h (2 Bft) 94,74 %
24.04.2017 15:30 13,7 C 51 % 1014,6 hPa 0,0 l/m 2,7 km/h (1 Bft) O-SO 104 2 min 0,000 mm 3,0 UV-I 691 W/m 3,8 C 13,7 C 4,8 km/h (1 Bft) 94,00 %
24.04.2017 15:32 13,6 C 53 % 1014,6 hPa 0,0 l/m 5,5 km/h (1 Bft) O-NO 63 2 min 0,000 mm 2,9 UV-I 687 W/m 4,2 C 13,6 C 9,7 km/h (2 Bft) 96,00 %
24.04.2017 15:34 13,7 C 52 % 1014,6 hPa 0,0 l/m 4,7 km/h (1 Bft) NO 47 2 min 0,000 mm 2,9 UV-I 684 W/m 4,0 C 13,7 C 12,9 km/h (3 Bft) 92,00 %
24.04.2017 15:36 13,5 C 49 % 1014,6 hPa 0,0 l/m 1,7 km/h (1 Bft) W-SW 238 2 min 0,000 mm 2,8 UV-I 680 W/m 3,0 C 13,5 C 4,8 km/h (1 Bft) 89,47 %
24.04.2017 15:38 13,3 C 50 % 1014,5 hPa 0,0 l/m 2,2 km/h (1 Bft) W-NW 295 2 min 0,000 mm 2,8 UV-I 675 W/m 3,1 C 13,3 C 4,8 km/h (1 Bft) 98,11 %
24.04.2017 15:40 13,3 C 52 % 1014,5 hPa 0,0 l/m 1,1 km/h (1 Bft) NO 38 2 min 0,000 mm 2,7 UV-I 670 W/m 3,7 C 13,3 C 4,8 km/h (1 Bft) 98,00 %
24.04.2017 15:42 13,3 C 54 % 1014,4 hPa 0,0 l/m 4,4 km/h (1 Bft) NO 36 2 min 0,000 mm 2,7 UV-I 666 W/m 4,2 C 13,3 C 8,0 km/h (2 Bft) 92,11 %
24.04.2017 15:44 13,7 C 57 % 1014,4 hPa 0,0 l/m 5,4 km/h (1 Bft) NO 36 2 min 0,000 mm 2,7 UV-I 662 W/m 5,3 C 13,7 C 8,0 km/h (2 Bft) 96,23 %
24.04.2017 15:46 13,8 C 55 % 1014,4 hPa 0,0 l/m 5,8 km/h (2 Bft) O-NO 60 2 min 0,000 mm 2,7 UV-I 659 W/m 4,9 C 13,8 C 9,7 km/h (2 Bft) 97,37 %
24.04.2017 15:48 14,1 C 56 % 1014,4 hPa 0,0 l/m 6,7 km/h (2 Bft) NO 45 2 min 0,000 mm 2,6 UV-I 643 W/m 5,5 C 13,9 C 9,7 km/h (2 Bft) 93,22 %
24.04.2017 15:50 14,2 C 56 % 1014,4 hPa 0,0 l/m 6,7 km/h (2 Bft) NO 56 2 min 0,000 mm 2,6 UV-I 630 W/m 5,6 C 14,0 C 8,0 km/h (2 Bft) 92,68 %
24.04.2017 15:52 14,2 C 53 % 1014,3 hPa 0,0 l/m 5,7 km/h (1 Bft) N-NO 28 2 min 0,000 mm 2,5 UV-I 652 W/m 4,8 C 14,2 C 8,0 km/h (2 Bft) 95,74 %
24.04.2017 15:54 14,4 C 57 % 1014,3 hPa 0,0 l/m 5,8 km/h (2 Bft) N-NO 15 2 min 0,000 mm 2,5 UV-I 650 W/m 6,0 C 14,4 C 8,0 km/h (2 Bft) 95,24 %
24.04.2017 15:56 14,4 C 56 % 1014,2 hPa 0,0 l/m 2,8 km/h (1 Bft) N-NO 29 2 min 0,000 mm 2,5 UV-I 644 W/m 5,7 C 14,4 C 8,0 km/h (2 Bft) 96,23 %
24.04.2017 15:58 14,2 C 53 % 1014,2 hPa 0,0 l/m 2,5 km/h (1 Bft) NO 44 2 min 0,000 mm 2,4 UV-I 640 W/m 4,8 C 14,2 C 4,8 km/h (1 Bft) 94,74 %
24.04.2017 16:00 13,9 C 52 % 1014,2 hPa 0,0 l/m 1,7 km/h (1 Bft) O-NO 74 2 min 0,381 mm 2,3 UV-I 640 W/m 4,2 C 13,9 C 4,8 km/h (1 Bft) 96,23 %
24.04.2017 16:02 14,0 C 52 % 1014,2 hPa 0,0 l/m 5,9 km/h (2 Bft) NO 47 2 min 0,000 mm 2,4 UV-I 629 W/m 4,3 C 14,0 C 9,7 km/h (2 Bft) 98,00 %
24.04.2017 16:04 14,1 C 53 % 1014,1 hPa 0,0 l/m 4,0 km/h (1 Bft) O-NO 60 2 min 0,000 mm 2,3 UV-I 625 W/m 4,7 C 14,1 C 8,0 km/h (2 Bft) 92,00 %
24.04.2017 16:06 14,2 C 55 % 1014,1 hPa 0,0 l/m 3,0 km/h (1 Bft) O-NO 68 2 min 0,000 mm 2,3 UV-I 620 W/m 5,3 C 14,2 C 4,8 km/h (1 Bft) 93,62 %
24.04.2017 16:08 14,4 C 55 % 1014,1 hPa 0,0 l/m 3,6 km/h (1 Bft) N-NO 19 2 min 0,000 mm 2,2 UV-I 607 W/m 5,5 C 14,4 C 4,8 km/h (1 Bft) 92,68 %
24.04.2017 16:10 14,4 C 52 % 1014,0 hPa 0,0 l/m 6,0 km/h (2 Bft) O-NO 76 2 min 0,000 mm 2,2 UV-I 548 W/m 4,7 C 14,4 C 9,7 km/h (2 Bft) 88,68 %
24.04.2017 16:12 14,4 C 52 % 1014,0 hPa 0,0 l/m 4,5 km/h (1 Bft) NO 51 2 min 0,000 mm 2,1 UV-I 561 W/m 4,7 C 14,4 C 6,4 km/h (2 Bft) 94,74 %
24.04.2017 16:14 14,6 C 55 % 1014,0 hPa 0,0 l/m 4,8 km/h (1 Bft) O-NO 66 2 min 0,000 mm 2,1 UV-I 586 W/m 5,7 C 14,6 C 8,0 km/h (2 Bft) 91,67 %
24.04.2017 16:16 14,8 C 59 % 1013,9 hPa 0,0 l/m 5,4 km/h (1 Bft) N-NO 29 2 min 0,000 mm 2,1 UV-I 593 W/m 6,9 C 14,8 C 8,0 km/h (2 Bft) 93,18 %
24.04.2017 16:18 14,8 C 50 % 1013,9 hPa 0,0 l/m 4,5 km/h (1 Bft) O-NO 57 2 min 0,000 mm 2,1 UV-I 585 W/m 4,5 C 14,8 C 6,4 km/h (2 Bft) 95,74 %
24.04.2017 16:20 14,6 C 49 % 1013,9 hPa 0,0 l/m 1,4 km/h (1 Bft) O-NO 57 2 min 0,000 mm 2,0 UV-I 578 W/m 4,0 C 14,6 C 4,8 km/h (1 Bft) 94,34 %
24.04.2017 16:22 14,4 C 51 % 1013,9 hPa 0,0 l/m 0,7 km/h (0 Bft) O-NO 57 2 min 0,000 mm 2,0 UV-I 573 W/m 4,4 C 14,4 C 1,6 km/h (1 Bft) 90,91 %
24.04.2017 16:24 14,4 C 50 % 1013,9 hPa 0,0 l/m 4,8 km/h (1 Bft) SW 236 2 min 0,000 mm 2,0 UV-I 568 W/m 4,1 C 14,4 C 8,0 km/h (2 Bft) 93,18 %
24.04.2017 16:26 14,5 C 49 % 1013,9 hPa 0,0 l/m 2,6 km/h (1 Bft) SW 236 2 min 0,000 mm 2,0 UV-I 557 W/m 3,9 C 14,5 C 4,8 km/h (1 Bft) 87,23 %
24.04.2017 16:28 14,5 C 49 % 1013,9 hPa 0,0 l/m 3,4 km/h (1 Bft) W-SW 242 2 min 0,000 mm 1,9 UV-I 491 W/m 3,9 C 14,5 C 6,4 km/h (2 Bft) 94,00 %
24.04.2017 16:30 14,4 C 49 % 1013,9 hPa 0,0 l/m 2,1 km/h (1 Bft) W-SW 247 2 min 0,000 mm 1,8 UV-I 462 W/m 3,8 C 14,4 C 3,2 km/h (1 Bft) 92,59 %
24.04.2017 16:32 14,5 C 50 % 1013,7 hPa 0,0 l/m 1,0 km/h (0 Bft) W-SW 248 2 min 0,000 mm 1,9 UV-I 536 W/m 4,2 C 14,5 C 3,2 km/h (1 Bft) 90,77 %
24.04.2017 16:34 14,6 C 51 % 1013,7 hPa 0,0 l/m 1,1 km/h (1 Bft) O-SO 121 2 min 0,000 mm 1,9 UV-I 553 W/m 4,6 C 14,6 C 6,4 km/h (2 Bft) 92,00 %
24.04.2017 16:36 14,7 C 52 % 1013,7 hPa 0,0 l/m 3,9 km/h (1 Bft) S-SO 150 2 min 0,000 mm 1,8 UV-I 537 W/m 5,0 C 14,7 C 6,4 km/h (2 Bft) 96,00 %
24.04.2017 16:38 14,7 C 52 % 1013,6 hPa 0,0 l/m 4,0 km/h (1 Bft) NO 39 2 min 0,000 mm 1,7 UV-I 480 W/m 5,0 C 14,7 C 6,4 km/h (2 Bft) 89,80 %
24.04.2017 16:40 14,8 C 54 % 1013,6 hPa 0,0 l/m 6,8 km/h (2 Bft) NO 37 2 min 0,000 mm 1,7 UV-I 467 W/m 5,6 C 14,6 C 9,7 km/h (2 Bft) 97,37 %
24.04.2017 16:42 14,8 C 55 % 1013,5 hPa 0,0 l/m 4,1 km/h (1 Bft) NO 49 2 min 0,000 mm 1,6 UV-I 475 W/m 5,8 C 14,8 C 6,4 km/h (2 Bft) 94,34 %
24.04.2017 16:44 14,7 C 51 % 1013,5 hPa 0,0 l/m 4,6 km/h (1 Bft) NO 49 2 min 0,000 mm 1,6 UV-I 485 W/m 4,7 C 14,7 C 6,4 km/h (2 Bft) 94,74 %
24.04.2017 16:46 14,8 C 54 % 1013,5 hPa 0,0 l/m 5,2 km/h (1 Bft) NO 48 2 min 0,000 mm 1,6 UV-I 464 W/m 5,6 C 14,8 C 8,0 km/h (2 Bft) 97,73 %
24.04.2017 16:48 14,7 C 55 % 1013,5 hPa 0,0 l/m 3,3 km/h (1 Bft) NO 48 2 min 0,000 mm 1,5 UV-I 468 W/m 5,8 C 14,7 C 6,4 km/h (2 Bft) 96,43 %
24.04.2017 16:50 14,7 C 55 % 1013,5 hPa 0,0 l/m 3,1 km/h (1 Bft) NO 48 2 min 0,000 mm 1,5 UV-I 494 W/m 5,8 C 14,7 C 4,8 km/h (1 Bft) 98,00 %
24.04.2017 16:52 14,8 C 52 % 1013,5 hPa 0,0 l/m 2,9 km/h (1 Bft) NO 49 2 min 0,000 mm 1,5 UV-I 506 W/m 5,0 C 14,8 C 6,4 km/h (2 Bft) 95,12 %
24.04.2017 16:54 14,9 C 55 % 1013,4 hPa 0,0 l/m 6,2 km/h (2 Bft) NO 39 2 min 0,000 mm 1,5 UV-I 491 W/m 5,9 C 14,9 C 11,3 km/h (2 Bft) 97,87 %
24.04.2017 16:56 14,9 C 55 % 1013,4 hPa 0,0 l/m 7,4 km/h (2 Bft) NO 44 2 min 0,000 mm 1,4 UV-I 470 W/m 5,9 C 14,3 C 11,3 km/h (2 Bft) 96,00 %
24.04.2017 16:58 14,9 C 52 % 1013,4 hPa 0,0 l/m 7,1 km/h (2 Bft) NO 55 2 min 0,000 mm 1,3 UV-I 408 W/m 5,1 C 14,5 C 9,7 km/h (2 Bft) 88,00 %
24.04.2017 17:00 14,9 C 52 % 1013,4 hPa 0,0 l/m 6,2 km/h (2 Bft) O-NO 69 2 min 0,305 mm 1,3 UV-I 427 W/m 5,1 C 14,9 C 8,0 km/h (2 Bft) 95,12 %
24.04.2017 17:02 14,8 C 50 % 1013,3 hPa 0,0 l/m 5,7 km/h (1 Bft) O-NO 71 2 min 0,000 mm 1,3 UV-I 435 W/m 4,5 C 14,8 C 8,0 km/h (2 Bft) 92,45 %
24.04.2017 17:04 14,7 C 51 % 1013,3 hPa 0,0 l/m 1,9 km/h (1 Bft) O-NO 71 2 min 0,000 mm 1,3 UV-I 452 W/m 4,7 C 14,7 C 4,8 km/h (1 Bft) 94,74 %
24.04.2017 17:06 14,6 C 52 % 1013,3 hPa 0,0 l/m 1,0 km/h (0 Bft) O-NO 76 2 min 0,000 mm 1,3 UV-I 454 W/m 4,9 C 14,6 C 3,2 km/h (1 Bft) 96,00 %
24.04.2017 17:08 14,6 C 53 % 1013,3 hPa 0,0 l/m 3,0 km/h (1 Bft) O-NO 76 2 min 0,000 mm 1,3 UV-I 422 W/m 5,1 C 14,6 C 6,4 km/h (2 Bft) 96,00 %
24.04.2017 17:10 14,8 C 52 % 1013,2 hPa 0,0 l/m 3,2 km/h (1 Bft) O-NO 76 2 min 0,000 mm 1,2 UV-I 410 W/m 5,0 C 14,8 C 4,8 km/h (1 Bft) 96,00 %
24.04.2017 17:12 14,8 C 50 % 1013,2 hPa 0,0 l/m 4,1 km/h (1 Bft) O 79 2 min 0,000 mm 1,2 UV-I 431 W/m 4,5 C 14,8 C 6,4 km/h (2 Bft) 95,24 %
24.04.2017 17:14 14,6 C 50 % 1013,2 hPa 0,0 l/m 4,7 km/h (1 Bft) O 92 2 min 0,000 mm 1,2 UV-I 435 W/m 4,3 C 14,6 C 6,4 km/h (2 Bft) 95,74 %
24.04.2017 17:16 14,5 C 51 % 1013,1 hPa 0,0 l/m 4,2 km/h (1 Bft) O 88 2 min 0,000 mm 1,2 UV-I 429 W/m 4,5 C 14,5 C 6,4 km/h (2 Bft) 93,62 %
24.04.2017 17:18 14,6 C 51 % 1013,1 hPa 0,0 l/m 0,7 km/h (0 Bft) O-NO 66 2 min 0,000 mm 1,1 UV-I 422 W/m 4,6 C 14,6 C 3,2 km/h (1 Bft) 94,74 %
24.04.2017 17:20 14,7 C 55 % 1013,1 hPa 0,0 l/m 4,4 km/h (1 Bft) NO 36 2 min 0,000 mm 1,1 UV-I 408 W/m 5,8 C 14,7 C 6,4 km/h (2 Bft) 88,68 %
24.04.2017 17:22 14,7 C 52 % 1013,1 hPa 0,0 l/m 3,2 km/h (1 Bft) NO 36 2 min 0,000 mm 1,1 UV-I 400 W/m 5,0 C 14,7 C 6,4 km/h (2 Bft) 97,87 %
24.04.2017 17:24 14,8 C 53 % 1013,1 hPa 0,0 l/m 4,7 km/h (1 Bft) NO 50 2 min 0,000 mm 1,0 UV-I 393 W/m 5,3 C 14,8 C 6,4 km/h (2 Bft) 98,11 %
24.04.2017 17:26 14,8 C 55 % 1013,0 hPa 0,0 l/m 4,9 km/h (1 Bft) N-NO 19 2 min 0,000 mm 1,0 UV-I 388 W/m 5,8 C 14,8 C 8,0 km/h (2 Bft) 92,68 %
24.04.2017 17:28 14,7 C 54 % 1013,0 hPa 0,0 l/m 2,2 km/h (1 Bft) N-NW 338 2 min 0,000 mm 1,0 UV-I 376 W/m 5,5 C 14,7 C 4,8 km/h (1 Bft) 93,18 %
24.04.2017 17:30 14,7 C 52 % 1013,0 hPa 0,0 l/m 1,3 km/h (1 Bft) NW 321 2 min 0,000 mm 0,9 UV-I 370 W/m 5,0 C 14,7 C 4,8 km/h (1 Bft) 94,64 %
24.04.2017 17:32 14,7 C 54 % 1013,0 hPa 0,0 l/m 3,4 km/h (1 Bft) NO 40 2 min 0,000 mm 0,9 UV-I 334 W/m 5,5 C 14,7 C 6,4 km/h (2 Bft) 94,74 %
24.04.2017 17:34 14,7 C 50 % 1012,9 hPa 0,0 l/m 2,9 km/h (1 Bft) N-NO 32 2 min 0,000 mm 0,9 UV-I 330 W/m 4,4 C 14,7 C 6,4 km/h (2 Bft) 97,56 %
24.04.2017 17:36 14,7 C 50 % 1013,0 hPa 0,0 l/m 1,0 km/h (0 Bft) N-NO 32 2 min 0,000 mm 0,9 UV-I 344 W/m 4,4 C 14,7 C 3,2 km/h (1 Bft) 96,23 %
24.04.2017 17:38 14,8 C 53 % 1012,9 hPa 0,0 l/m 0,9 km/h (0 Bft) N-NO 27 2 min 0,000 mm 0,8 UV-I 358 W/m 5,3 C 14,8 C 3,2 km/h (1 Bft) 96,00 %
24.04.2017 17:40 14,7 C 54 % 1012,9 hPa 0,0 l/m 0,8 km/h (0 Bft) N-NO 26 2 min 0,000 mm 0,8 UV-I 355 W/m 5,5 C 14,7 C 3,2 km/h (1 Bft) 95,12 %
24.04.2017 17:42 14,7 C 51 % 1012,9 hPa 0,0 l/m 3,1 km/h (1 Bft) N-NO 26 2 min 0,000 mm 0,8 UV-I 346 W/m 4,7 C 14,7 C 4,8 km/h (1 Bft) 94,34 %
24.04.2017 17:44 14,7 C 52 % 1012,9 hPa 0,0 l/m 1,0 km/h (0 Bft) N-NO 26 2 min 0,000 mm 0,8 UV-I 339 W/m 5,0 C 14,7 C 3,2 km/h (1 Bft) 92,11 %
24.04.2017 17:46 14,8 C 51 % 1012,9 hPa 0,0 l/m 1,5 km/h (1 Bft) N-NO 26 2 min 0,000 mm 0,8 UV-I 330 W/m 4,8 C 14,8 C 3,2 km/h (1 Bft) 94,34 %
24.04.2017 17:48 14,8 C 53 % 1012,9 hPa 0,0 l/m 1,4 km/h (1 Bft) N-NO 26 2 min 0,000 mm 0,7 UV-I 320 W/m 5,3 C 14,8 C 3,2 km/h (1 Bft) 96,23 %
24.04.2017 17:50 14,8 C 53 % 1012,8 hPa 0,0 l/m 1,5 km/h (1 Bft) N-NO 26 2 min 0,000 mm 0,7 UV-I 315 W/m 5,3 C 14,8 C 4,8 km/h (1 Bft) 95,24 %
24.04.2017 17:52 14,8 C 53 % 1012,8 hPa 0,0 l/m 2,6 km/h (1 Bft) N-NO 13 2 min 0,000 mm 0,7 UV-I 309 W/m 5,3 C 14,8 C 4,8 km/h (1 Bft) 93,62 %
24.04.2017 17:54 14,8 C 55 % 1012,8 hPa 0,0 l/m 1,3 km/h (1 Bft) NW 321 2 min 0,000 mm 0,7 UV-I 303 W/m 5,8 C 14,8 C 3,2 km/h (1 Bft) 92,11 %
24.04.2017 17:56 14,8 C 50 % 1012,7 hPa 0,0 l/m 2,4 km/h (1 Bft) NW 306 2 min 0,000 mm 0,6 UV-I 292 W/m 4,5 C 14,8 C 4,8 km/h (1 Bft) 98,11 %
24.04.2017 17:58 14,8 C 52 % 1012,7 hPa 0,0 l/m 1,7 km/h (1 Bft) NW 322 2 min 0,000 mm 0,6 UV-I 286 W/m 5,0 C 14,8 C 3,2 km/h (1 Bft) 96,23 %
24.04.2017 18:00 14,7 C 53 % 1012,7 hPa 0,0 l/m 1,1 km/h (1 Bft) NW 315 2 min 0,000 mm 0,6 UV-I 280 W/m 5,2 C 14,7 C 3,2 km/h (1 Bft) 90,91 %
24.04.2017 18:02 14,8 C 51 % 1012,7 hPa 0,0 l/m 3,1 km/h (1 Bft) W-NW 297 2 min 0,203 mm 0,6 UV-I 275 W/m 4,8 C 14,8 C 6,4 km/h (2 Bft) 95,45 %
24.04.2017 18:04 14,8 C 48 % 1012,7 hPa 0,0 l/m 1,9 km/h (1 Bft) W-NW 294 2 min 0,000 mm 0,6 UV-I 271 W/m 3,9 C 14,8 C 4,8 km/h (1 Bft) 94,00 %
24.04.2017 18:06 14,7 C 49 % 1012,6 hPa 0,0 l/m 0,2 km/h (0 Bft) W-NW 294 2 min 0,000 mm 0,5 UV-I 267 W/m 4,1 C 14,7 C 1,6 km/h (1 Bft) 95,74 %
24.04.2017 18:08 14,8 C 48 % 1012,6 hPa 0,0 l/m 0,3 km/h (0 Bft) W-NW 294 2 min 0,000 mm 0,5 UV-I 260 W/m 3,9 C 14,8 C 1,6 km/h (1 Bft) 86,00 %
24.04.2017 18:10 14,8 C 50 % 1012,6 hPa 0,0 l/m 2,3 km/h (1 Bft) N-NW 331 2 min 0,000 mm 0,5 UV-I 254 W/m 4,5 C 14,8 C 3,2 km/h (1 Bft) 93,62 %
24.04.2017 18:12 14,8 C 51 % 1012,6 hPa 0,0 l/m 1,9 km/h (1 Bft) N-NW 334 2 min 0,000 mm 0,5 UV-I 248 W/m 4,8 C 14,8 C 3,2 km/h (1 Bft) 90,24 %
24.04.2017 18:14 14,8 C 49 % 1012,6 hPa 0,0 l/m 2,0 km/h (1 Bft) N-NW 335 2 min 0,000 mm 0,5 UV-I 244 W/m 4,2 C 14,8 C 3,2 km/h (1 Bft) 92,00 %
24.04.2017 18:16 14,8 C 52 % 1012,5 hPa 0,0 l/m 1,1 km/h (1 Bft) N-NW 335 2 min 0,000 mm 0,3 UV-I 237 W/m 5,0 C 14,8 C 3,2 km/h (1 Bft) 93,62 %
24.04.2017 18:18 15,0 C 49 % 1012,5 hPa 0,0 l/m 0,7 km/h (0 Bft) N-NW 335 2 min 0,000 mm 0,0 UV-I 230 W/m 4,4 C 15,0 C 1,6 km/h (1 Bft) 94,74 %
24.04.2017 18:20 14,9 C 48 % 1012,5 hPa 0,0 l/m 1,6 km/h (1 Bft) NW 322 2 min 0,000 mm 0,0 UV-I 225 W/m 4,0 C 14,9 C 3,2 km/h (1 Bft) 92,00 %
24.04.2017 18:22 14,9 C 49 % 1012,5 hPa 0,0 l/m 0,5 km/h (0 Bft) NW 322 2 min 0,000 mm 0,0 UV-I 219 W/m 4,3 C 14,9 C 1,6 km/h (1 Bft) 89,36 %
24.04.2017 18:24 14,8 C 52 % 1012,5 hPa 0,0 l/m 1,4 km/h (1 Bft) N-NW 334 2 min 0,000 mm 0,0 UV-I 212 W/m 5,0 C 14,8 C 4,8 km/h (1 Bft) 91,67 %
24.04.2017 18:26 14,7 C 52 % 1012,5 hPa 0,0 l/m 0,6 km/h (0 Bft) N-NW 336 2 min 0,000 mm 0,0 UV-I 207 W/m 5,0 C 14,7 C 3,2 km/h (1 Bft) 93,44 %
24.04.2017 18:28 14,6 C 52 % 1012,4 hPa 0,0 l/m 1,9 km/h (1 Bft) NW 325 2 min 0,000 mm 0,0 UV-I 200 W/m 4,9 C 14,6 C 3,2 km/h (1 Bft) 92,00 %
24.04.2017 18:30 14,4 C 55 % 1012,4 hPa 0,0 l/m 3,1 km/h (1 Bft) N-NO 18 2 min 0,000 mm 0,0 UV-I 194 W/m 5,5 C 14,4 C 6,4 km/h (2 Bft) 95,24 %
24.04.2017 18:32 14,3 C 55 % 1012,4 hPa 0,0 l/m 1,2 km/h (1 Bft) N 355 2 min 0,000 mm 0,0 UV-I 187 W/m 5,4 C 14,3 C 3,2 km/h (1 Bft) 96,00 %
24.04.2017 18:34 14,2 C 53 % 1012,4 hPa 0,0 l/m 2,2 km/h (1 Bft) NW 325 2 min 0,000 mm 0,0 UV-I 178 W/m 4,8 C 14,2 C 4,8 km/h (1 Bft) 96,00 %
24.04.2017 18:36 14,2 C 56 % 1012,4 hPa 0,0 l/m 1,1 km/h (1 Bft) N-NW 344 2 min 0,000 mm 0,0 UV-I 176 W/m 5,6 C 14,2 C 3,2 km/h (1 Bft) 92,68 %
24.04.2017 18:38 14,0 C 54 % 1012,3 hPa 0,0 l/m 0,6 km/h (0 Bft) N-NW 346 2 min 0,000 mm 0,0 UV-I 165 W/m 4,8 C 14,0 C 1,6 km/h (1 Bft) 95,74 %
24.04.2017 18:40 13,9 C 57 % 1012,3 hPa 0,0 l/m 2,8 km/h (1 Bft) N-NO 19 2 min 0,000 mm 0,0 UV-I 152 W/m 5,5 C 13,9 C 11,3 km/h (2 Bft) 95,74 %
24.04.2017 18:43 13,9 C 55 % 1012,3 hPa 0,0 l/m 2,2 km/h (1 Bft) N 355 3 min 0,000 mm 0,0 UV-I 157 W/m 5,0 C 13,9 C 8,0 km/h (2 Bft) 97,47 %
24.04.2017 18:44 13,8 C 58 % 1012,3 hPa 0,0 l/m 0,6 km/h (0 Bft) N 355 1 min 0,000 mm 0,0 UV-I 152 W/m 5,7 C 13,8 C 3,2 km/h (1 Bft) 100,00 %
24.04.2017 18:46 13,7 C 56 % 1012,3 hPa 0,0 l/m 1,6 km/h (1 Bft) N 5 2 min 0,000 mm 0,0 UV-I 141 W/m 5,1 C 13,7 C 3,2 km/h (1 Bft) 90,57 %
24.04.2017 18:48 13,6 C 54 % 1012,3 hPa 0,0 l/m 1,9 km/h (1 Bft) N-NW 346 2 min 0,000 mm 0,0 UV-I 132 W/m 4,5 C 13,6 C 3,2 km/h (1 Bft) 96,00 %
24.04.2017 18:50 13,5 C 56 % 1012,2 hPa 0,0 l/m 1,2 km/h (1 Bft) N-NW 341 2 min 0,000 mm 0,0 UV-I 115 W/m 4,9 C 13,5 C 4,8 km/h (1 Bft) 100,00 %
24.04.2017 18:52 13,4 C 58 % 1012,2 hPa 0,0 l/m 0,4 km/h (0 Bft) N-NW 342 2 min 0,000 mm 0,0 UV-I 113 W/m 5,3 C 13,4 C 3,2 km/h (1 Bft) 97,37 %
24.04.2017 18:54 13,3 C 58 % 1012,2 hPa 0,0 l/m 1,4 km/h (1 Bft) N 9 0 min 0,000 mm 0,0 UV-I 101 W/m 5,2 C 13,3 C 4,8 km/h (1 Bft) 98,11 %
24.04.2017 18:56 13,3 C 59 % 1012,2 hPa 0,0 l/m 1,0 km/h (0 Bft) N 9 2 min 0,000 mm 0,0 UV-I 104 W/m 5,5 C 13,3 C 3,2 km/h (1 Bft) 100,00 %
24.04.2017 18:58 13,2 C 57 % 1012,2 hPa 0,0 l/m 1,7 km/h (1 Bft) N 5 0 min 0,000 mm 0,0 UV-I 90 W/m 4,9 C 13,2 C 3,2 km/h (1 Bft) 100,00 %
24.04.2017 19:00 13,1 C 57 % 1012,2 hPa 0,0 l/m 0,4 km/h (0 Bft) N 9 2 min 0,102 mm 0,0 UV-I 98 W/m 4,8 C 13,1 C 3,2 km/h (1 Bft) 95,12 %
24.04.2017 19:02 13,1 C 58 % 1012,1 hPa 0,0 l/m 1,9 km/h (1 Bft) N-NO 17 0 min 0,000 mm 0,0 UV-I 80 W/m 5,0 C 13,1 C 4,8 km/h (1 Bft) 96,23 %
24.04.2017 19:04 13,1 C 59 % 1012,1 hPa 0,0 l/m 0,6 km/h (0 Bft) N-NO 17 0 min 0,000 mm 0,0 UV-I 68 W/m 5,3 C 13,1 C 1,6 km/h (1 Bft) 100,00 %
24.04.2017 19:06 13,0 C 59 % 1012,1 hPa 0,0 l/m 0,4 km/h (0 Bft) N-NO 17 0 min 0,000 mm 0,0 UV-I 78 W/m 5,2 C 13,0 C 1,6 km/h (1 Bft) 94,44 %
24.04.2017 19:08 12,9 C 58 % 1012,1 hPa 0,0 l/m 2,0 km/h (1 Bft) N-NO 17 0 min 0,000 mm 0,0 UV-I 68 W/m 4,8 C 12,9 C 6,4 km/h (2 Bft) 98,18 %
24.04.2017 19:10 12,9 C 57 % 1012,1 hPa 0,0 l/m 3,6 km/h (1 Bft) N-NO 17 0 min 0,000 mm 0,0 UV-I 61 W/m 4,6 C 12,9 C 6,4 km/h (2 Bft) 100,00 %
24.04.2017 19:12 13,0 C 57 % 1012,1 hPa 0,0 l/m 4,6 km/h (1 Bft) N-NO 21 0 min 0,000 mm 0,0 UV-I 61 W/m 4,7 C 13,0 C 6,4 km/h (2 Bft) 97,73 %
24.04.2017 19:14 13,0 C 56 % 1012,1 hPa 0,0 l/m 3,7 km/h (1 Bft) N-NO 21 0 min 0,000 mm 0,0 UV-I 64 W/m 4,4 C 13,0 C 6,4 km/h (2 Bft) 95,74 %
24.04.2017 19:16 12,9 C 57 % 1012,0 hPa 0,0 l/m 2,6 km/h (1 Bft) N-NO 21 0 min 0,000 mm 0,0 UV-I 64 W/m 4,6 C 12,9 C 4,8 km/h (1 Bft) 94,00 %
24.04.2017 19:18 12,8 C 57 % 1012,0 hPa 0,0 l/m 4,1 km/h (1 Bft) N-NO 21 0 min 0,000 mm 0,0 UV-I 56 W/m 4,5 C 12,8 C 6,4 km/h (2 Bft) 100,00 %
24.04.2017 19:20 12,8 C 57 % 1012,0 hPa 0,0 l/m 3,5 km/h (1 Bft) N-NO 21 0 min 0,000 mm 0,0 UV-I 47 W/m 4,5 C 12,8 C 4,8 km/h (1 Bft) 100,00 %
24.04.2017 19:22 12,7 C 63 % 1012,0 hPa 0,0 l/m 2,5 km/h (1 Bft) N-NO 21 0 min 0,000 mm 0,0 UV-I 44 W/m 5,8 C 12,7 C 3,2 km/h (1 Bft) 93,62 %
24.04.2017 19:24 12,6 C 63 % 1011,9 hPa 0,0 l/m 2,0 km/h (1 Bft) N-NO 21 0 min 0,000 mm 0,0 UV-I 45 W/m 5,7 C 12,6 C 3,2 km/h (1 Bft) 97,14 %
24.04.2017 19:26 12,6 C 62 % 1011,9 hPa 0,0 l/m 1,9 km/h (1 Bft) N-NO 21 0 min 0,000 mm 0,0 UV-I 44 W/m 5,5 C 12,6 C 3,2 km/h (1 Bft) 98,00 %
24.04.2017 19:28 12,6 C 62 % 1011,9 hPa 0,0 l/m 2,4 km/h (1 Bft) N-NO 21 0 min 0,000 mm 0,0 UV-I 46 W/m 5,5 C 12,6 C 3,2 km/h (1 Bft) 97,37 %
24.04.2017 19:30 12,5 C 63 % 1011,9 hPa 0,0 l/m 1,7 km/h (1 Bft) N-NO 21 0 min 0,000 mm 0,0 UV-I 43 W/m 5,7 C 12,5 C 3,2 km/h (1 Bft) 98,39 %
24.04.2017 19:32 12,4 C 62 % 1011,9 hPa 0,0 l/m 1,6 km/h (1 Bft) N-NO 21 0 min 0,000 mm 0,0 UV-I 39 W/m 5,3 C 12,4 C 3,2 km/h (1 Bft) 92,68 %
24.04.2017 19:34 12,4 C 62 % 1011,9 hPa 0,0 l/m 1,6 km/h (1 Bft) N-NO 21 0 min 0,000 mm 0,0 UV-I 38 W/m 5,3 C 12,4 C 3,2 km/h (1 Bft) 94,00 %
24.04.2017 19:36 12,4 C 62 % 1011,9 hPa 0,0 l/m 1,5 km/h (1 Bft) N-NO 21 0 min 0,000 mm 0,0 UV-I 39 W/m 5,3 C 12,4 C 3,2 km/h (1 Bft) 94,00 %
24.04.2017 19:38 12,4 C 62 % 1011,9 hPa 0,0 l/m 2,1 km/h (1 Bft) N-NO 21 2 min 0,000 mm 0,0 UV-I 37 W/m 5,3 C 12,4 C 3,2 km/h (1 Bft) 100,00 %
24.04.2017 19:40 12,3 C 64 % 1011,9 hPa 0,0 l/m 2,0 km/h (1 Bft) N-NO 21 2 min 0,000 mm 0,0 UV-I 33 W/m 5,7 C 12,3 C 3,2 km/h (1 Bft) 98,11 %
24.04.2017 19:42 12,2 C 64 % 1011,9 hPa 0,0 l/m 2,0 km/h (1 Bft) N-NO 21 2 min 0,000 mm 0,0 UV-I 30 W/m 5,6 C 12,2 C 3,2 km/h (1 Bft) 94,74 %
24.04.2017 19:44 11,9 C 64 % 1011,9 hPa 0,0 l/m 1,3 km/h (1 Bft) N-NO 21 2 min 0,000 mm 0,0 UV-I 28 W/m 5,3 C 11,9 C 3,2 km/h (1 Bft) 97,62 %
24.04.2017 19:46 11,8 C 63 % 1011,9 hPa 0,0 l/m 1,8 km/h (1 Bft) N-NO 21 2 min 0,000 mm 0,0 UV-I 26 W/m 5,0 C 11,8 C 3,2 km/h (1 Bft) 98,11 %
24.04.2017 19:48 11,8 C 63 % 1011,9 hPa 0,0 l/m 2,2 km/h (1 Bft) N-NO 21 2 min 0,000 mm 0,0 UV-I 23 W/m 5,0 C 11,8 C 3,2 km/h (1 Bft) 94,23 %
24.04.2017 19:50 11,8 C 63 % 1011,8 hPa 0,0 l/m 2,0 km/h (1 Bft) N-NO 21 2 min 0,000 mm 0,0 UV-I 22 W/m 5,0 C 11,8 C 3,2 km/h (1 Bft) 98,00 %
24.04.2017 19:52 11,9 C 62 % 1011,8 hPa 0,0 l/m 2,8 km/h (1 Bft) N-NO 21 2 min 0,000 mm 0,0 UV-I 19 W/m 4,9 C 11,9 C 3,2 km/h (1 Bft) 94,87 %
24.04.2017 19:54 11,9 C 62 % 1011,8 hPa 0,0 l/m 2,7 km/h (1 Bft) N-NO 21 2 min 0,000 mm 0,0 UV-I 17 W/m 4,9 C 11,9 C 3,2 km/h (1 Bft) 94,64 %
24.04.2017 19:56 11,8 C 63 % 1011,8 hPa 0,0 l/m 2,3 km/h (1 Bft) N-NO 21 2 min 0,000 mm 0,0 UV-I 13 W/m 5,0 C 11,8 C 3,2 km/h (1 Bft) 97,83 %
24.04.2017 19:58 11,6 C 63 % 1011,8 hPa 0,0 l/m 1,8 km/h (1 Bft) N-NO 21 0 min 0,000 mm 0,0 UV-I 12 W/m 4,8 C 11,6 C 3,2 km/h (1 Bft) 92,68 %
24.04.2017 20:00 11,4 C 63 % 1011,8 hPa 0,0 l/m 2,3 km/h (1 Bft) N-NO 21 0 min 0,025 mm 0,0 UV-I 11 W/m 4,6 C 11,4 C 3,2 km/h (1 Bft) 94,00 %
24.04.2017 20:02 11,2 C 64 % 1011,7 hPa 0,0 l/m 2,7 km/h (1 Bft) N-NO 21 0 min 0,000 mm 0,0 UV-I 9 W/m 4,6 C 11,2 C 3,2 km/h (1 Bft) 100,00 %
24.04.2017 20:04 11,1 C 63 % 1011,7 hPa 0,0 l/m 2,2 km/h (1 Bft) N-NO 21 0 min 0,000 mm 0,0 UV-I 8 W/m 4,3 C 11,1 C 3,2 km/h (1 Bft) 100,00 %
24.04.2017 20:06 11,2 C 63 % 1011,7 hPa 0,0 l/m 2,1 km/h (1 Bft) N-NO 21 0 min 0,000 mm 0,0 UV-I 7 W/m 4,4 C 11,2 C 3,2 km/h (1 Bft) 96,23 %
24.04.2017 20:08 11,2 C 63 % 1011,7 hPa 0,0 l/m 2,1 km/h (1 Bft) N-NO 21 0 min 0,000 mm 0,0 UV-I 7 W/m 4,4 C 11,2 C 3,2 km/h (1 Bft) 97,37 %
24.04.2017 20:10 11,2 C 63 % 1011,6 hPa 0,0 l/m 2,1 km/h (1 Bft) N-NO 21 0 min 0,000 mm 0,0 UV-I 5 W/m 4,4 C 11,2 C 3,2 km/h (1 Bft) 98,00 %
24.04.2017 20:12 11,2 C 63 % 1011,6 hPa 0,0 l/m 2,0 km/h (1 Bft) N-NO 21 0 min 0,000 mm 0,0 UV-I 5 W/m 4,4 C 11,2 C 3,2 km/h (1 Bft) 92,86 %
24.04.2017 20:14 11,1 C 63 % 1011,6 hPa 0,0 l/m 1,6 km/h (1 Bft) N-NO 21 0 min 0,000 mm 0,0 UV-I 5 W/m 4,3 C 11,1 C 3,2 km/h (1 Bft) 98,11 %
24.04.2017 20:16 11,0 C 63 % 1011,6 hPa 0,0 l/m 1,6 km/h (1 Bft) N-NO 21 0 min 0,000 mm 0,0 UV-I 5 W/m 4,2 C 11,0 C 3,2 km/h (1 Bft) 98,00 %
24.04.2017 20:18 10,9 C 63 % 1011,6 hPa 0,0 l/m 1,1 km/h (1 Bft) N-NO 21 0 min 0,000 mm 0,0 UV-I 4 W/m 4,1 C 10,9 C 1,6 km/h (1 Bft) 95,74 %
24.04.2017 20:20 10,8 C 63 % 1011,6 hPa 0,0 l/m 1,6 km/h (1 Bft) N-NO 21 0 min 0,000 mm 0,0 UV-I 0 W/m 4,0 C 10,8 C 3,2 km/h (1 Bft) 97,87 %
24.04.2017 20:22 10,7 C 64 % 1011,6 hPa 0,0 l/m 1,5 km/h (1 Bft) N-NO 21 0 min 0,000 mm 0,0 UV-I 0 W/m 4,2 C 10,7 C 3,2 km/h (1 Bft) 93,62 %
24.04.2017 20:24 10,6 C 64 % 1011,6 hPa 0,0 l/m 2,0 km/h (1 Bft) N-NO 21 0 min 0,000 mm 0,0 UV-I 0 W/m 4,1 C 10,6 C 3,2 km/h (1 Bft) 91,67 %
24.04.2017 20:26 10,7 C 64 % 1011,6 hPa 0,0 l/m 1,5 km/h (1 Bft) N-NO 21 0 min 0,000 mm 0,0 UV-I 0 W/m 4,2 C 10,7 C 3,2 km/h (1 Bft) 94,00 %
24.04.2017 20:28 10,6 C 65 % 1011,6 hPa 0,0 l/m 1,8 km/h (1 Bft) N-NO 21 0 min 0,000 mm 0,0 UV-I 0 W/m 4,3 C 10,6 C 3,2 km/h (1 Bft) 94,00 %
24.04.2017 20:30 10,3 C 66 % 1011,6 hPa 0,0 l/m 2,9 km/h (1 Bft) N-NO 21 0 min 0,000 mm 0,0 UV-I 0 W/m 4,2 C 10,3 C 4,8 km/h (1 Bft) 94,00 %
24.04.2017 20:32 10,2 C 66 % 1011,6 hPa 0,0 l/m 3,2 km/h (1 Bft) N-NO 21 0 min 0,000 mm 0,0 UV-I 0 W/m 4,1 C 10,2 C 3,2 km/h (1 Bft) 93,62 %
24.04.2017 20:34 10,0 C 67 % 1011,6 hPa 0,0 l/m 3,4 km/h (1 Bft) N-NO 21 0 min 0,000 mm 0,0 UV-I 0 W/m 4,2 C 10,0 C 4,8 km/h (1 Bft) 94,74 %
24.04.2017 20:36 9,8 C 68 % 1011,6 hPa 0,0 l/m 3,8 km/h (1 Bft) N-NO 21 0 min 0,000 mm 0,0 UV-I 0 W/m 4,2 C 9,8 C 4,8 km/h (1 Bft) 95,74 %
24.04.2017 20:38 9,6 C 69 % 1011,6 hPa 0,0 l/m 3,7 km/h (1 Bft) N-NO 21 0 min 0,000 mm 0,0 UV-I 0 W/m 4,2 C 9,6 C 4,8 km/h (1 Bft) 94,64 %
24.04.2017 20:40 9,6 C 69 % 1011,5 hPa 0,0 l/m 3,0 km/h (1 Bft) N-NO 21 0 min 0,000 mm 0,0 UV-I 0 W/m 4,2 C 9,6 C 4,8 km/h (1 Bft) 97,87 %
24.04.2017 20:42 9,6 C 68 % 1011,6 hPa 0,0 l/m 2,0 km/h (1 Bft) N-NO 21 0 min 0,000 mm 0,0 UV-I 0 W/m 4,0 C 9,6 C 3,2 km/h (1 Bft) 94,74 %
24.04.2017 20:44 9,6 C 69 % 1011,5 hPa 0,0 l/m 0,7 km/h (0 Bft) N-NO 21 0 min 0,000 mm 0,0 UV-I 0 W/m 4,2 C 9,6 C 1,6 km/h (1 Bft) 92,00 %
24.04.2017 20:46 9,6 C 70 % 1011,5 hPa 0,0 l/m 1,2 km/h (1 Bft) N-NO 21 0 min 0,000 mm 0,0 UV-I 0 W/m 4,4 C 9,6 C 1,6 km/h (1 Bft) 97,87 %
24.04.2017 20:48 9,5 C 69 % 1011,5 hPa 0,0 l/m 2,3 km/h (1 Bft) N-NO 21 0 min 0,000 mm 0,0 UV-I 0 W/m 4,1 C 9,5 C 3,2 km/h (1 Bft) 95,45 %
24.04.2017 20:50 9,4 C 69 % 1011,5 hPa 0,0 l/m 3,0 km/h (1 Bft) N-NO 21 0 min 0,000 mm 0,0 UV-I 0 W/m 4,0 C 9,4 C 4,8 km/h (1 Bft) 95,74 %
24.04.2017 20:52 9,4 C 68 % 1011,4 hPa 0,0 l/m 2,5 km/h (1 Bft) N-NO 21 0 min 0,000 mm 0,0 UV-I 0 W/m 3,8 C 9,4 C 3,2 km/h (1 Bft) 94,64 %
24.04.2017 20:54 9,8 C 67 % 1011,4 hPa 0,0 l/m 2,6 km/h (1 Bft) N-NO 21 0 min 0,000 mm 0,0 UV-I 0 W/m 4,0 C 9,8 C 3,2 km/h (1 Bft) 92,11 %
24.04.2017 20:56 9,9 C 67 % 1011,4 hPa 0,0 l/m 0,9 km/h (0 Bft) N-NO 21 0 min 0,000 mm 0,0 UV-I 0 W/m 4,1 C 9,9 C 3,2 km/h (1 Bft) 94,34 %
24.04.2017 20:58 9,8 C 66 % 1011,4 hPa 0,0 l/m 0,0 km/h (0 Bft) N-NO 21 0 min 0,000 mm 0,0 UV-I 0 W/m 3,8 C 9,8 C 1,6 km/h (1 Bft) 97,37 %
24.04.2017 21:00 9,7 C 67 % 1011,4 hPa 0,0 l/m 0,6 km/h (0 Bft) N-NO 21 0 min 0,000 mm 0,0 UV-I 0 W/m 3,9 C 9,7 C 3,2 km/h (1 Bft) 94,34 %
24.04.2017 21:02 9,5 C 68 % 1011,4 hPa 0,0 l/m 2,2 km/h (1 Bft) N-NO 21 0 min 0,025 mm 0,0 UV-I 0 W/m 3,9 C 9,5 C 3,2 km/h (1 Bft) 98,00 %
24.04.2017 21:04 9,4 C 68 % 1011,4 hPa 0,0 l/m 2,1 km/h (1 Bft) N-NO 21 0 min 0,000 mm 0,0 UV-I 0 W/m 3,8 C 9,4 C 3,2 km/h (1 Bft) 97,87 %
24.04.2017 21:06 9,4 C 69 % 1011,5 hPa 0,0 l/m 1,4 km/h (1 Bft) N-NO 21 0 min 0,000 mm 0,0 UV-I 0 W/m 4,0 C 9,4 C 3,2 km/h (1 Bft) 94,87 %
24.04.2017 21:09 9,3 C 70 % 1011,5 hPa 0,0 l/m 1,6 km/h (1 Bft) N-NO 21 0 min 0,000 mm 0,0 UV-I 0 W/m 4,1 C 9,3 C 3,2 km/h (1 Bft) 97,37 %
24.04.2017 21:10 9,2 C 70 % 1011,5 hPa 0,0 l/m 2,2 km/h (1 Bft) N-NO 21 0 min 0,000 mm 0,0 UV-I 0 W/m 4,0 C 9,2 C 3,2 km/h (1 Bft) 100,00 %
24.04.2017 21:12 8,9 C 73 % 1011,5 hPa 0,0 l/m 3,2 km/h (1 Bft) N-NO 21 0 min 0,000 mm 0,0 UV-I 0 W/m 4,3 C 8,9 C 4,8 km/h (1 Bft) 92,11 %
24.04.2017 21:14 8,6 C 73 % 1011,4 hPa 0,0 l/m 3,4 km/h (1 Bft) N-NO 21 0 min 0,000 mm 0,0 UV-I 0 W/m 4,0 C 8,6 C 4,8 km/h (1 Bft) 100,00 %
24.04.2017 21:16 8,4 C 74 % 1011,4 hPa 0,0 l/m 3,3 km/h (1 Bft) N-NO 21 0 min 0,000 mm 0,0 UV-I 0 W/m 4,0 C 8,4 C 4,8 km/h (1 Bft) 98,00 %
24.04.2017 21:18 8,3 C 75 % 1011,4 hPa 0,0 l/m 4,0 km/h (1 Bft) N-NO 22 0 min 0,000 mm 0,0 UV-I 0 W/m 4,1 C 8,3 C 4,8 km/h (1 Bft) 97,14 %
24.04.2017 21:20 8,4 C 73 % 1011,4 hPa 0,0 l/m 3,7 km/h (1 Bft) N-NO 22 0 min 0,000 mm 0,0 UV-I 0 W/m 3,8 C 8,4 C 4,8 km/h (1 Bft) 98,11 %
24.04.2017 21:22 8,5 C 73 % 1011,4 hPa 0,0 l/m 2,8 km/h (1 Bft) N-NO 22 0 min 0,000 mm 0,0 UV-I 0 W/m 3,9 C 8,5 C 4,8 km/h (1 Bft) 96,00 %
24.04.2017 21:24 8,7 C 71 % 1011,3 hPa 0,0 l/m 0,8 km/h (0 Bft) N-NO 22 0 min 0,000 mm 0,0 UV-I 0 W/m 3,7 C 8,7 C 1,6 km/h (1 Bft) 97,37 %
24.04.2017 21:26 8,9 C 71 % 1011,3 hPa 0,0 l/m 0,0 km/h (0 Bft) N-NO 22 0 min 0,000 mm 0,0 UV-I 0 W/m 3,9 C 8,9 C 0,0 km/h (0 Bft) 98,21 %
24.04.2017 21:28 8,9 C 71 % 1011,3 hPa 0,0 l/m 0,0 km/h (0 Bft) N-NO 22 0 min 0,000 mm 0,0 UV-I 0 W/m 3,9 C 8,9 C 0,0 km/h (0 Bft) 97,37 %
24.04.2017 21:30 8,9 C 72 % 1011,3 hPa 0,0 l/m 0,0 km/h (0 Bft) N-NO 22 0 min 0,000 mm 0,0 UV-I 0 W/m 4,1 C 8,9 C 0,0 km/h (0 Bft) 98,00 %
24.04.2017 21:32 8,8 C 72 % 1011,4 hPa 0,0 l/m 0,0 km/h (0 Bft) N-NO 22 0 min 0,000 mm 0,0 UV-I 0 W/m 4,0 C 8,8 C 0,0 km/h (0 Bft) 100,00 %
24.04.2017 21:34 8,7 C 73 % 1011,3 hPa 0,0 l/m 0,0 km/h (0 Bft) N-NO 22 0 min 0,000 mm 0,0 UV-I 0 W/m 4,1 C 8,7 C 1,6 km/h (1 Bft) 94,34 %
24.04.2017 21:36 8,7 C 73 % 1011,3 hPa 0,0 l/m 0,3 km/h (0 Bft) N-NO 22 0 min 0,000 mm 0,0 UV-I 0 W/m 4,1 C 8,7 C 1,6 km/h (1 Bft) 91,49 %
24.04.2017 21:38 8,5 C 73 % 1011,2 hPa 0,0 l/m 1,0 km/h (0 Bft) N-NO 22 0 min 0,000 mm 0,0 UV-I 0 W/m 3,9 C 8,5 C 1,6 km/h (1 Bft) 92,11 %
24.04.2017 21:40 8,4 C 73 % 1011,3 hPa 0,0 l/m 0,7 km/h (0 Bft) N-NO 22 0 min 0,000 mm 0,0 UV-I 0 W/m 3,8 C 8,4 C 1,6 km/h (1 Bft) 98,21 %
24.04.2017 21:42 8,4 C 74 % 1011,2 hPa 0,0 l/m 0,2 km/h (0 Bft) N-NO 22 0 min 0,000 mm 0,0 UV-I 0 W/m 4,0 C 8,4 C 1,6 km/h (1 Bft) 100,00 %
24.04.2017 21:44 8,3 C 75 % 1011,3 hPa 0,0 l/m 0,0 km/h (0 Bft) N-NO 22 0 min 0,000 mm 0,0 UV-I 0 W/m 4,1 C 8,3 C 0,0 km/h (0 Bft) 97,92 %
24.04.2017 21:46 8,1 C 77 % 1011,2 hPa 0,0 l/m 1,3 km/h (1 Bft) N-NO 22 0 min 0,000 mm 0,0 UV-I 0 W/m 4,3 C 8,1 C 3,2 km/h (1 Bft) 98,08 %
24.04.2017 21:48 7,7 C 78 % 1011,2 hPa 0,0 l/m 3,3 km/h (1 Bft) N-NO 22 0 min 0,000 mm 0,0 UV-I 0 W/m 4,1 C 7,7 C 4,8 km/h (1 Bft) 98,00 %
24.04.2017 21:50 7,5 C 81 % 1011,2 hPa 0,0 l/m 4,1 km/h (1 Bft) N-NO 32 0 min 0,000 mm 0,0 UV-I 0 W/m 4,5 C 7,5 C 6,4 km/h (2 Bft) 97,44 %
24.04.2017 21:52 7,4 C 81 % 1011,2 hPa 0,0 l/m 3,7 km/h (1 Bft) NO 37 0 min 0,000 mm 0,0 UV-I 0 W/m 4,4 C 7,4 C 4,8 km/h (1 Bft) 100,00 %
24.04.2017 21:54 7,6 C 81 % 1011,1 hPa 0,0 l/m 3,3 km/h (1 Bft) NO 37 0 min 0,000 mm 0,0 UV-I 0 W/m 4,6 C 7,6 C 4,8 km/h (1 Bft) 100,00 %
24.04.2017 21:56 7,6 C 81 % 1011,2 hPa 0,0 l/m 1,8 km/h (1 Bft) NO 37 0 min 0,000 mm 0,0 UV-I 0 W/m 4,6 C 7,6 C 3,2 km/h (1 Bft) 97,37 %
24.04.2017 21:58 7,6 C 80 % 1011,2 hPa 0,0 l/m 2,1 km/h (1 Bft) NO 38 0 min 0,000 mm 0,0 UV-I 0 W/m 4,4 C 7,6 C 3,2 km/h (1 Bft) 98,11 %
24.04.2017 22:00 7,6 C 79 % 1011,2 hPa 0,0 l/m 1,1 km/h (1 Bft) NO 38 0 min 0,000 mm 0,0 UV-I 0 W/m 4,2 C 7,6 C 3,2 km/h (1 Bft) 100,00 %
24.04.2017 22:02 7,6 C 80 % 1011,1 hPa 0,0 l/m 0,1 km/h (0 Bft) NO 38 0 min 0,000 mm 0,0 UV-I 0 W/m 4,4 C 7,6 C 1,6 km/h (1 Bft) 97,73 %
24.04.2017 22:04 7,6 C 79 % 1011,2 hPa 0,0 l/m 0,0 km/h (0 Bft) NO 38 0 min 0,000 mm 0,0 UV-I 0 W/m 4,2 C 7,6 C 0,0 km/h (0 Bft) 100,00 %
24.04.2017 22:06 7,5 C 79 % 1011,1 hPa 0,0 l/m 0,0 km/h (0 Bft) NO 38 0 min 0,000 mm 0,0 UV-I 0 W/m 4,1 C 7,5 C 0,0 km/h (0 Bft) 98,11 %
24.04.2017 22:08 7,5 C 79 % 1011,1 hPa 0,0 l/m 0,0 km/h (0 Bft) NO 38 0 min 0,000 mm 0,0 UV-I 0 W/m 4,1 C 7,5 C 0,0 km/h (0 Bft) 95,74 %
24.04.2017 22:10 7,4 C 79 % 1011,1 hPa 0,0 l/m 0,0 km/h (0 Bft) NO 38 0 min 0,000 mm 0,0 UV-I 0 W/m 4,0 C 7,4 C 0,0 km/h (0 Bft) 97,37 %
24.04.2017 22:12 7,4 C 79 % 1011,1 hPa 0,0 l/m 0,7 km/h (0 Bft) NO 38 0 min 0,000 mm 0,0 UV-I 0 W/m 4,0 C 7,4 C 1,6 km/h (1 Bft) 94,34 %
24.04.2017 22:14 7,3 C 79 % 1011,1 hPa 0,0 l/m 2,4 km/h (1 Bft) NO 38 0 min 0,000 mm 0,0 UV-I 0 W/m 3,9 C 7,3 C 3,2 km/h (1 Bft) 97,56 %
24.04.2017 22:16 7,3 C 79 % 1011,0 hPa 0,0 l/m 2,4 km/h (1 Bft) NO 38 0 min 0,000 mm 0,0 UV-I 0 W/m 3,9 C 7,3 C 4,8 km/h (1 Bft) 93,62 %
24.04.2017 22:18 7,2 C 80 % 1011,0 hPa 0,0 l/m 2,3 km/h (1 Bft) NO 38 0 min 0,000 mm 0,0 UV-I 0 W/m 4,0 C 7,2 C 4,8 km/h (1 Bft) 98,11 %
24.04.2017 22:20 7,2 C 80 % 1011,0 hPa 0,0 l/m 2,9 km/h (1 Bft) NO 38 0 min 0,000 mm 0,0 UV-I 0 W/m 4,0 C 7,2 C 3,2 km/h (1 Bft) 95,74 %
24.04.2017 22:22 7,1 C 81 % 1011,0 hPa 0,0 l/m 3,3 km/h (1 Bft) NO 38 0 min 0,000 mm 0,0 UV-I 0 W/m 4,1 C 7,1 C 4,8 km/h (1 Bft) 97,22 %
24.04.2017 22:24 7,1 C 82 % 1010,9 hPa 0,0 l/m 2,8 km/h (1 Bft) NO 38 0 min 0,000 mm 0,0 UV-I 0 W/m 4,2 C 7,1 C 3,2 km/h (1 Bft) 94,00 %
24.04.2017 22:26 7,0 C 82 % 1010,9 hPa 0,0 l/m 2,2 km/h (1 Bft) NO 38 0 min 0,000 mm 0,0 UV-I 0 W/m 4,1 C 7,0 C 3,2 km/h (1 Bft) 94,00 %
24.04.2017 22:28 6,9 C 83 % 1010,9 hPa 0,0 l/m 1,9 km/h (1 Bft) NO 38 0 min 0,000 mm 0,0 UV-I 0 W/m 4,2 C 6,9 C 3,2 km/h (1 Bft) 98,00 %
24.04.2017 22:30 6,8 C 82 % 1010,9 hPa 0,0 l/m 2,2 km/h (1 Bft) NO 38 0 min 0,000 mm 0,0 UV-I 0 W/m 3,9 C 6,8 C 3,2 km/h (1 Bft) 95,12 %
24.04.2017 22:32 6,8 C 82 % 1010,9 hPa 0,0 l/m 2,9 km/h (1 Bft) NO 40 0 min 0,000 mm 0,0 UV-I 0 W/m 3,9 C 6,8 C 4,8 km/h (1 Bft) 98,11 %
24.04.2017 22:34 6,8 C 82 % 1010,9 hPa 0,0 l/m 2,3 km/h (1 Bft) NO 40 0 min 0,000 mm 0,0 UV-I 0 W/m 3,9 C 6,8 C 3,2 km/h (1 Bft) 94,74 %
24.04.2017 22:36 6,8 C 82 % 1010,8 hPa 0,0 l/m 1,0 km/h (0 Bft) NO 40 0 min 0,000 mm 0,0 UV-I 0 W/m 3,9 C 6,8 C 3,2 km/h (1 Bft) 96,23 %
24.04.2017 22:38 6,8 C 82 % 1010,8 hPa 0,0 l/m 0,7 km/h (0 Bft) NO 40 0 min 0,000 mm 0,0 UV-I 0 W/m 3,9 C 6,8 C 3,2 km/h (1 Bft) 96,23 %
24.04.2017 22:40 6,8 C 82 % 1010,8 hPa 0,0 l/m 2,5 km/h (1 Bft) O-NO 76 0 min 0,000 mm 0,0 UV-I 0 W/m 3,9 C 6,8 C 6,4 km/h (2 Bft) 97,56 %
24.04.2017 22:42 6,8 C 82 % 1010,7 hPa 0,0 l/m 2,0 km/h (1 Bft) O-NO 76 0 min 0,000 mm 0,0 UV-I 0 W/m 3,9 C 6,8 C 4,8 km/h (1 Bft) 94,00 %
24.04.2017 22:44 6,8 C 82 % 1010,7 hPa 0,0 l/m 1,3 km/h (1 Bft) O-NO 76 0 min 0,000 mm 0,0 UV-I 0 W/m 3,9 C 6,8 C 3,2 km/h (1 Bft) 97,56 %
24.04.2017 22:46 6,7 C 83 % 1010,7 hPa 0,0 l/m 0,0 km/h (0 Bft) O-NO 76 0 min 0,000 mm 0,0 UV-I 0 W/m 4,0 C 6,7 C 0,0 km/h (0 Bft) 93,62 %
24.04.2017 22:48 6,7 C 83 % 1010,7 hPa 0,0 l/m 0,0 km/h (0 Bft) O-NO 76 0 min 0,000 mm 0,0 UV-I 0 W/m 4,0 C 6,7 C 0,0 km/h (0 Bft) 93,62 %
24.04.2017 22:50 6,7 C 83 % 1010,7 hPa 0,0 l/m 0,0 km/h (0 Bft) O-NO 76 0 min 0,000 mm 0,0 UV-I 0 W/m 4,0 C 6,7 C 0,0 km/h (0 Bft) 97,87 %
24.04.2017 22:52 6,7 C 83 % 1010,7 hPa 0,0 l/m 0,0 km/h (0 Bft) O-NO 76 0 min 0,000 mm 0,0 UV-I 0 W/m 4,0 C 6,7 C 0,0 km/h (0 Bft) 95,74 %
24.04.2017 22:54 6,7 C 83 % 1010,7 hPa 0,0 l/m 0,0 km/h (0 Bft) O-NO 76 0 min 0,000 mm 0,0 UV-I 0 W/m 4,0 C 6,7 C 0,0 km/h (0 Bft) 98,11 %
24.04.2017 22:56 6,7 C 83 % 1010,7 hPa 0,0 l/m 0,0 km/h (0 Bft) O-NO 76 0 min 0,000 mm 0,0 UV-I 0 W/m 4,0 C 6,7 C 0,0 km/h (0 Bft) 94,74 %
24.04.2017 22:58 6,7 C 82 % 1010,6 hPa 0,0 l/m 0,0 km/h (0 Bft) O-NO 76 0 min 0,000 mm 0,0 UV-I 0 W/m 3,8 C 6,7 C 0,0 km/h (0 Bft) 94,34 %
24.04.2017 23:00 6,6 C 83 % 1010,6 hPa 0,0 l/m 0,1 km/h (0 Bft) O-NO 76 0 min 0,000 mm 0,0 UV-I 0 W/m 3,9 C 6,6 C 1,6 km/h (1 Bft) 96,00 %
24.04.2017 23:02 6,4 C 83 % 1010,6 hPa 0,0 l/m 1,8 km/h (1 Bft) O-NO 76 0 min 0,000 mm 0,0 UV-I 0 W/m 3,7 C 6,4 C 3,2 km/h (1 Bft) 89,74 %
24.04.2017 23:04 6,4 C 83 % 1010,6 hPa 0,0 l/m 2,9 km/h (1 Bft) O-NO 76 0 min 0,000 mm 0,0 UV-I 0 W/m 3,7 C 6,4 C 3,2 km/h (1 Bft) 95,74 %
24.04.2017 23:06 6,3 C 83 % 1010,6 hPa 0,0 l/m 3,5 km/h (1 Bft) O-NO 77 0 min 0,000 mm 0,0 UV-I 0 W/m 3,6 C 6,3 C 4,8 km/h (1 Bft) 92,31 %
24.04.2017 23:08 6,4 C 83 % 1010,6 hPa 0,0 l/m 3,2 km/h (1 Bft) O-NO 77 0 min 0,000 mm 0,0 UV-I 0 W/m 3,7 C 6,4 C 4,8 km/h (1 Bft) 94,00 %
24.04.2017 23:10 6,6 C 83 % 1010,6 hPa 0,0 l/m 2,6 km/h (1 Bft) O-NO 77 0 min 0,000 mm 0,0 UV-I 0 W/m 3,9 C 6,6 C 3,2 km/h (1 Bft) 95,24 %
24.04.2017 23:12 6,5 C 83 % 1010,5 hPa 0,0 l/m 1,7 km/h (1 Bft) O-NO 77 0 min 0,000 mm 0,0 UV-I 0 W/m 3,8 C 6,5 C 3,2 km/h (1 Bft) 96,23 %
24.04.2017 23:14 6,4 C 83 % 1010,4 hPa 0,0 l/m 1,0 km/h (0 Bft) O-NO 77 0 min 0,000 mm 0,0 UV-I 0 W/m 3,7 C 6,4 C 3,2 km/h (1 Bft) 97,56 %
24.04.2017 23:16 6,2 C 83 % 1010,4 hPa 0,0 l/m 0,3 km/h (0 Bft) O-NO 77 0 min 0,000 mm 0,0 UV-I 0 W/m 3,5 C 6,2 C 1,6 km/h (1 Bft) 95,74 %
24.04.2017 23:18 6,2 C 84 % 1010,4 hPa 0,0 l/m 0,6 km/h (0 Bft) O-NO 77 0 min 0,000 mm 0,0 UV-I 0 W/m 3,7 C 6,2 C 1,6 km/h (1 Bft) 96,00 %
24.04.2017 23:20 6,1 C 84 % 1010,4 hPa 0,0 l/m 1,9 km/h (1 Bft) O-NO 77 0 min 0,000 mm 0,0 UV-I 0 W/m 3,6 C 6,1 C 3,2 km/h (1 Bft) 97,37 %
24.04.2017 23:22 6,1 C 85 % 1010,4 hPa 0,0 l/m 2,1 km/h (1 Bft) O-NO 77 0 min 0,000 mm 0,0 UV-I 0 W/m 3,8 C 6,1 C 3,2 km/h (1 Bft) 96,00 %
24.04.2017 23:24 6,1 C 85 % 1010,4 hPa 0,0 l/m 1,5 km/h (1 Bft) O-NO 77 0 min 0,000 mm 0,0 UV-I 0 W/m 3,8 C 6,1 C 3,2 km/h (1 Bft) 96,23 %
24.04.2017 23:26 6,2 C 85 % 1010,4 hPa 0,0 l/m 1,9 km/h (1 Bft) O-NO 77 0 min 0,000 mm 0,0 UV-I 0 W/m 3,9 C 6,2 C 3,2 km/h (1 Bft) 97,37 %
24.04.2017 23:28 6,2 C 85 % 1010,4 hPa 0,0 l/m 2,7 km/h (1 Bft) O-NO 77 0 min 0,000 mm 0,0 UV-I 0 W/m 3,9 C 6,2 C 3,2 km/h (1 Bft) 96,00 %
24.04.2017 23:30 6,3 C 85 % 1010,3 hPa 0,0 l/m 1,3 km/h (1 Bft) O-NO 77 0 min 0,000 mm 0,0 UV-I 0 W/m 4,0 C 6,3 C 3,2 km/h (1 Bft) 95,74 %
24.04.2017 23:32 6,3 C 85 % 1010,3 hPa 0,0 l/m 0,0 km/h (0 Bft) O-NO 77 0 min 0,000 mm 0,0 UV-I 0 W/m 4,0 C 6,3 C 0,0 km/h (0 Bft) 96,00 %
24.04.2017 23:34 6,3 C 85 % 1010,3 hPa 0,0 l/m 0,2 km/h (0 Bft) O-NO 77 0 min 0,000 mm 0,0 UV-I 0 W/m 4,0 C 6,3 C 1,6 km/h (1 Bft) 94,74 %
24.04.2017 23:36 6,3 C 85 % 1010,2 hPa 0,0 l/m 1,6 km/h (1 Bft) O-NO 77 0 min 0,000 mm 0,0 UV-I 0 W/m 4,0 C 6,3 C 3,2 km/h (1 Bft) 98,11 %
24.04.2017 23:38 6,4 C 84 % 1010,2 hPa 0,0 l/m 1,5 km/h (1 Bft) O-NO 77 0 min 0,000 mm 0,0 UV-I 0 W/m 3,9 C 6,4 C 3,2 km/h (1 Bft) 91,49 %
24.04.2017 23:40 6,4 C 84 % 1010,2 hPa 0,0 l/m 1,7 km/h (1 Bft) O-NO 77 0 min 0,000 mm 0,0 UV-I 0 W/m 3,9 C 6,4 C 3,2 km/h (1 Bft) 93,88 %
24.04.2017 23:42 6,4 C 84 % 1010,2 hPa 0,0 l/m 2,0 km/h (1 Bft) O-NO 77 0 min 0,000 mm 0,0 UV-I 0 W/m 3,9 C 6,4 C 3,2 km/h (1 Bft) 97,62 %
24.04.2017 23:44 6,3 C 84 % 1010,2 hPa 0,0 l/m 3,6 km/h (1 Bft) O-NO 77 0 min 0,000 mm 0,0 UV-I 0 W/m 3,8 C 6,3 C 4,8 km/h (1 Bft) 95,74 %
24.04.2017 23:46 6,2 C 84 % 1010,2 hPa 0,0 l/m 2,9 km/h (1 Bft) O-NO 77 0 min 0,000 mm 0,0 UV-I 0 W/m 3,7 C 6,2 C 4,8 km/h (1 Bft) 97,56 %
24.04.2017 23:48 6,1 C 85 % 1010,1 hPa 0,0 l/m 2,3 km/h (1 Bft) O-NO 77 0 min 0,000 mm 0,0 UV-I 0 W/m 3,8 C 6,1 C 3,2 km/h (1 Bft) 96,43 %
24.04.2017 23:50 6,1 C 86 % 1010,1 hPa 0,0 l/m 2,0 km/h (1 Bft) O-NO 77 0 min 0,000 mm 0,0 UV-I 0 W/m 3,9 C 6,1 C 3,2 km/h (1 Bft) 100,00 %
24.04.2017 23:52 6,2 C 85 % 1010,1 hPa 0,0 l/m 2,4 km/h (1 Bft) O-NO 77 0 min 0,000 mm 0,0 UV-I 0 W/m 3,9 C 6,2 C 3,2 km/h (1 Bft) 94,74 %
24.04.2017 23:54 6,1 C 85 % 1010,1 hPa 0,0 l/m 2,0 km/h (1 Bft) O-NO 77 0 min 0,000 mm 0,0 UV-I 0 W/m 3,8 C 6,1 C 3,2 km/h (1 Bft) 98,21 %
24.04.2017 23:56 5,9 C 85 % 1010,1 hPa 0,0 l/m 1,7 km/h (1 Bft) O-NO 77 0 min 0,000 mm 0,0 UV-I 0 W/m 3,6 C 5,9 C 3,2 km/h (1 Bft) 100,00 %
24.04.2017 23:58 6,0 C 86 % 1010,1 hPa 0,0 l/m 2,3 km/h (1 Bft) O-NO 77 0 min 0,000 mm 0,0 UV-I 0 W/m 3,8 C 6,0 C 3,2 km/h (1 Bft) 97,96 %
_ Min-Zeit 06:10 18:04 23:48 - 04:18 - - - - - - 06:00 06:06 04:18 12:24
Minimum _ -0,1 C 48 % 1010,1 hPa - 0,0 km/h (0 Bft) - - - - - - -0,9 C 0,0 C 0,0 km/h (0 Bft) 83,72 %
_ Max-Zeit 18:18 05:12 00:04 00:00 12:10 - - 09:09 13:02 13:44 12:48 16:16 18:18 12:10 00:12
Maximum _ 15,0 C 94 % 1023,3 hPa 0,0 l/m 16,7 km/h
O-NO (3 Bft)
- - 3 min 0,432 mm 4,6 UV-I 859 W/m 6,9 C 15,0 C 22,5 km/h
O-NO (4 Bft)
100,00 %
Durchschnitt _ 7,7 C 72 % 1017,2 hPa #0,0 l/m 3,6 km/h (1 Bft) NO - #13:10 h #3,581 mm 2,6 UV-I 479 W/m 2,6 C 7,5 C 6,2 km/h (2 Bft) 95,90 %